Wetterdaten: Donnerstag, 27.08.2015
Datum Zeit Temp. Aussen Temp. o. S. +5cm Feuchte Auss BlattFeu 1 Luftdruck Regen Sonnenschein Regendauer Solar Windben Empfang
27.08.2015 00:00 24,1 C 23,9 C 21,7 C 60 % 0 lf 1007,0 hPa 0,0 l/m 0 min 0 min 0 W/m 12,6 km/h (3 Bft) 91,67 %
27.08.2015 00:02 24,1 C 23,9 C 21,7 C 60 % 0 lf 1007,0 hPa 0,0 l/m 0 min 0 min 0 W/m 8,4 km/h (2 Bft) 95,12 %
27.08.2015 00:05 24,1 C 23,9 C 21,7 C 60 % 0 lf 1006,9 hPa 0,0 l/m 0 min 0 min 0 W/m 4,2 km/h (1 Bft) 95,12 %
27.08.2015 00:08 24,1 C 23,9 C 21,7 C 60 % 0 lf 1006,9 hPa 0,0 l/m 0 min 0 min 0 W/m 6,3 km/h (2 Bft) 95,14 %
27.08.2015 00:10 24,1 C 23,9 C 21,7 C 60 % 0 lf 1007,0 hPa 0,0 l/m 0 min 0 min 0 W/m 14,6 km/h (3 Bft) 95,12 %
27.08.2015 00:12 24,1 C 23,9 C 21,7 C 60 % 0 lf 1006,9 hPa 0,0 l/m 0 min 0 min 0 W/m 16,7 km/h (3 Bft) 95,74 %
27.08.2015 00:14 24,1 C 23,9 C 21,7 C 60 % 0 lf 1006,9 hPa 0,0 l/m 0 min 0 min 0 W/m 12,6 km/h (3 Bft) 93,75 %
27.08.2015 00:16 24,0 C 23,9 C 21,7 C 60 % 0 lf 1006,9 hPa 0,0 l/m 0 min 0 min 0 W/m 2,1 km/h (1 Bft) 95,74 %
27.08.2015 00:18 24,0 C 23,9 C 21,7 C 60 % 0 lf 1006,9 hPa 0,0 l/m 0 min 0 min 0 W/m 0,0 km/h (0 Bft) 93,62 %
27.08.2015 00:20 24,0 C 23,9 C 21,7 C 60 % 0 lf 1007,0 hPa 0,0 l/m 0 min 0 min 0 W/m 0,0 km/h (0 Bft) 93,62 %
27.08.2015 00:22 24,0 C 23,9 C 21,7 C 60 % 0 lf 1006,9 hPa 0,0 l/m 0 min 0 min 0 W/m 0,0 km/h (0 Bft) 93,75 %
27.08.2015 00:24 24,0 C 23,9 C 21,7 C 60 % 0 lf 1007,0 hPa 0,0 l/m 0 min 0 min 0 W/m 8,4 km/h (2 Bft) 93,62 %
27.08.2015 00:26 24,0 C 23,9 C 22,2 C 60 % 0 lf 1007,0 hPa 0,0 l/m 0 min 0 min 0 W/m 6,3 km/h (2 Bft) 91,49 %
27.08.2015 00:28 24,0 C 23,9 C 21,7 C 60 % 0 lf 1007,1 hPa 0,0 l/m 0 min 0 min 0 W/m 0,0 km/h (0 Bft) 97,83 %
27.08.2015 00:30 24,0 C 23,9 C 21,7 C 60 % 0 lf 1007,2 hPa 0,0 l/m 0 min 0 min 0 W/m 2,1 km/h (1 Bft) 97,87 %
27.08.2015 00:32 24,0 C 23,9 C 21,7 C 60 % 0 lf 1007,3 hPa 0,0 l/m 0 min 0 min 0 W/m 0,0 km/h (0 Bft) 97,87 %
27.08.2015 00:34 23,9 C 23,9 C 21,7 C 60 % 0 lf 1007,3 hPa 0,0 l/m 0 min 0 min 0 W/m 2,1 km/h (1 Bft) 95,74 %
27.08.2015 00:36 23,9 C 23,3 C 21,7 C 60 % 0 lf 1007,3 hPa 0,0 l/m 0 min 0 min 0 W/m 0,0 km/h (0 Bft) 97,87 %
27.08.2015 00:38 23,9 C 23,9 C 21,7 C 60 % 0 lf 1007,3 hPa 0,0 l/m 0 min 0 min 0 W/m 6,3 km/h (2 Bft) 93,62 %
27.08.2015 00:40 23,9 C 23,3 C 21,7 C 60 % 0 lf 1007,3 hPa 0,0 l/m 0 min 0 min 0 W/m 2,1 km/h (1 Bft) 95,74 %
27.08.2015 00:42 23,9 C 23,3 C 21,7 C 60 % 0 lf 1007,4 hPa 0,0 l/m 0 min 0 min 0 W/m 0,0 km/h (0 Bft) 93,62 %
27.08.2015 00:44 23,9 C 23,3 C 21,1 C 60 % 0 lf 1007,4 hPa 0,0 l/m 0 min 0 min 0 W/m 0,0 km/h (0 Bft) 95,74 %
27.08.2015 00:46 23,8 C 23,3 C 21,1 C 61 % 0 lf 1007,5 hPa 0,0 l/m 0 min 0 min 0 W/m 2,1 km/h (1 Bft) 95,74 %
27.08.2015 00:48 23,8 C 23,3 C 21,1 C 61 % 0 lf 1007,5 hPa 0,0 l/m 0 min 0 min 0 W/m 10,5 km/h (2 Bft) 95,74 %
27.08.2015 00:50 23,7 C 23,3 C 21,1 C 61 % 0 lf 1007,5 hPa 0,0 l/m 0 min 0 min 0 W/m 2,1 km/h (1 Bft) 95,74 %
27.08.2015 00:52 23,7 C 22,8 C 21,1 C 63 % 0 lf 1007,5 hPa 0,0 l/m 0 min 0 min 0 W/m 0,0 km/h (0 Bft) 93,48 %
27.08.2015 00:54 23,7 C 22,8 C 21,1 C 63 % 0 lf 1007,5 hPa 0,0 l/m 0 min 0 min 0 W/m 2,1 km/h (1 Bft) 93,62 %
27.08.2015 00:56 23,6 C 22,8 C 21,1 C 65 % 0 lf 1007,6 hPa 0,0 l/m 0 min 0 min 0 W/m 0,0 km/h (0 Bft) 95,74 %
27.08.2015 00:58 23,6 C 22,8 C 20,6 C 65 % 0 lf 1007,7 hPa 0,0 l/m 0 min 0 min 0 W/m 0,0 km/h (0 Bft) 93,62 %
27.08.2015 01:00 23,5 C 22,2 C 20,6 C 65 % 0 lf 1007,7 hPa 0,0 l/m 0 min 0 min 0 W/m 0,0 km/h (0 Bft) 93,75 %
27.08.2015 01:02 23,4 C 22,2 C 20,6 C 65 % 0 lf 1007,8 hPa 0,0 l/m 0 min 0 min 0 W/m 0,0 km/h (0 Bft) 97,87 %
27.08.2015 01:04 23,4 C 22,2 C 20,6 C 65 % 0 lf 1007,8 hPa 0,0 l/m 0 min 0 min 0 W/m 0,0 km/h (0 Bft) 97,83 %
27.08.2015 01:06 23,4 C 22,2 C 20,6 C 66 % 0 lf 1007,8 hPa 0,0 l/m 0 min 0 min 0 W/m 0,0 km/h (0 Bft) 97,87 %
27.08.2015 01:08 23,3 C 22,2 C 20,6 C 66 % 0 lf 1007,9 hPa 0,0 l/m 0 min 0 min 0 W/m 0,0 km/h (0 Bft) 95,74 %
27.08.2015 01:10 23,3 C 22,2 C 20,0 C 66 % 0 lf 1007,8 hPa 0,0 l/m 0 min 0 min 0 W/m 0,0 km/h (0 Bft) 97,87 %
27.08.2015 01:12 23,2 C 22,2 C 20,0 C 66 % 0 lf 1007,8 hPa 0,0 l/m 0 min 0 min 0 W/m 0,0 km/h (0 Bft) 97,87 %
27.08.2015 01:14 23,2 C 22,2 C 20,0 C 67 % 0 lf 1007,8 hPa 0,0 l/m 0 min 0 min 0 W/m 0,0 km/h (0 Bft) 97,83 %
27.08.2015 01:16 23,1 C 21,7 C 20,0 C 67 % 0 lf 1007,8 hPa 0,0 l/m 0 min 0 min 0 W/m 0,0 km/h (0 Bft) 97,87 %
27.08.2015 01:18 23,1 C 21,7 C 20,0 C 68 % 0 lf 1007,8 hPa 0,0 l/m 0 min 0 min 0 W/m 0,0 km/h (0 Bft) 97,87 %
27.08.2015 01:20 23,0 C 21,7 C 20,0 C 68 % 0 lf 1007,8 hPa 0,0 l/m 0 min 0 min 0 W/m 0,0 km/h (0 Bft) 100,00 %
27.08.2015 01:22 22,9 C 21,7 C 20,0 C 68 % 0 lf 1007,8 hPa 0,0 l/m 0 min 0 min 0 W/m 0,0 km/h (0 Bft) 95,74 %
27.08.2015 01:24 22,8 C 21,7 C 20,0 C 69 % 0 lf 1007,8 hPa 0,0 l/m 0 min 0 min 0 W/m 0,0 km/h (0 Bft) 100,00 %
27.08.2015 01:26 22,8 C 21,7 C 20,0 C 69 % 0 lf 1007,8 hPa 0,0 l/m 0 min 0 min 0 W/m 0,0 km/h (0 Bft) 97,83 %
27.08.2015 01:28 22,8 C 21,7 C 20,0 C 69 % 0 lf 1007,7 hPa 0,0 l/m 0 min 0 min 0 W/m 0,0 km/h (0 Bft) 97,87 %
27.08.2015 01:30 22,7 C 21,7 C 20,0 C 70 % 0 lf 1007,8 hPa 0,0 l/m 0 min 0 min 0 W/m 0,0 km/h (0 Bft) 100,00 %
27.08.2015 01:32 22,7 C 21,7 C 20,0 C 70 % 0 lf 1007,8 hPa 0,0 l/m 0 min 0 min 0 W/m 0,0 km/h (0 Bft) 100,00 %
27.08.2015 01:34 22,6 C 21,7 C 20,0 C 70 % 0 lf 1007,8 hPa 0,0 l/m 0 min 0 min 0 W/m 0,0 km/h (0 Bft) 95,74 %
27.08.2015 01:36 22,6 C 21,1 C 19,4 C 70 % 0 lf 1007,8 hPa 0,0 l/m 0 min 0 min 0 W/m 0,0 km/h (0 Bft) 100,00 %
27.08.2015 01:38 22,6 C 21,1 C 19,4 C 71 % 0 lf 1007,8 hPa 0,0 l/m 0 min 0 min 0 W/m 0,0 km/h (0 Bft) 97,87 %
27.08.2015 01:40 22,5 C 21,1 C 19,4 C 71 % 0 lf 1007,9 hPa 0,0 l/m 0 min 0 min 0 W/m 0,0 km/h (0 Bft) 100,00 %
27.08.2015 01:42 22,4 C 21,1 C 19,4 C 71 % 0 lf 1007,9 hPa 0,0 l/m 0 min 0 min 0 W/m 0,0 km/h (0 Bft) 97,87 %
27.08.2015 01:44 22,4 C 21,1 C 19,4 C 71 % 0 lf 1007,9 hPa 0,0 l/m 0 min 0 min 0 W/m 0,0 km/h (0 Bft) 100,00 %
27.08.2015 01:46 22,4 C 21,1 C 19,4 C 71 % 0 lf 1008,0 hPa 0,0 l/m 0 min 0 min 0 W/m 0,0 km/h (0 Bft) 97,87 %
27.08.2015 01:48 22,3 C 21,1 C 19,4 C 71 % 0 lf 1008,0 hPa 0,0 l/m 0 min 0 min 0 W/m 0,0 km/h (0 Bft) 100,00 %
27.08.2015 01:50 22,3 C 21,1 C 19,4 C 71 % 0 lf 1008,0 hPa 0,0 l/m 0 min 0 min 0 W/m 0,0 km/h (0 Bft) 97,87 %
27.08.2015 01:52 22,2 C 21,1 C 19,4 C 72 % 0 lf 1007,8 hPa 0,0 l/m 0 min 0 min 0 W/m 0,0 km/h (0 Bft) 97,83 %
27.08.2015 01:54 22,2 C 21,1 C 19,4 C 72 % 0 lf 1007,7 hPa 0,0 l/m 0 min 0 min 0 W/m 0,0 km/h (0 Bft) 100,00 %
27.08.2015 01:56 22,2 C 21,1 C 19,4 C 72 % 0 lf 1007,8 hPa 0,0 l/m 0 min 0 min 0 W/m 0,0 km/h (0 Bft) 97,87 %
27.08.2015 01:58 22,1 C 21,1 C 19,4 C 72 % 0 lf 1007,8 hPa 0,0 l/m 0 min 0 min 0 W/m 0,0 km/h (0 Bft) 100,00 %
27.08.2015 02:00 22,1 C 21,1 C 19,4 C 73 % 0 lf 1007,7 hPa 0,0 l/m 0 min 0 min 0 W/m 0,0 km/h (0 Bft) 95,74 %
27.08.2015 02:02 22,1 C 21,1 C 19,4 C 73 % 2 lf 1007,6 hPa 0,0 l/m 0 min 2 min 0 W/m 0,0 km/h (0 Bft) 95,65 %
27.08.2015 02:04 22,0 C 21,1 C 19,4 C 73 % 1 lf 1007,6 hPa 0,0 l/m 0 min 2 min 0 W/m 0,0 km/h (0 Bft) 97,87 %
27.08.2015 02:06 21,9 C 21,1 C 18,9 C 73 % 0 lf 1007,6 hPa 0,0 l/m 0 min 2 min 0 W/m 0,0 km/h (0 Bft) 97,87 %
27.08.2015 02:08 21,9 C 21,1 C 18,9 C 73 % 1 lf 1007,6 hPa 0,0 l/m 0 min 2 min 0 W/m 0,0 km/h (0 Bft) 98,11 %
27.08.2015 02:10 21,9 C 21,1 C 18,9 C 73 % 0 lf 1007,7 hPa 0,0 l/m 0 min 0 min 0 W/m 0,0 km/h (0 Bft) 97,87 %
27.08.2015 02:12 21,9 C 21,1 C 18,9 C 74 % 0 lf 1007,7 hPa 0,0 l/m 0 min 0 min 0 W/m 0,0 km/h (0 Bft) 97,87 %
27.08.2015 02:14 21,8 C 21,1 C 18,9 C 74 % 0 lf 1007,7 hPa 0,0 l/m 0 min 0 min 0 W/m 0,0 km/h (0 Bft) 97,87 %
27.08.2015 02:16 21,8 C 21,1 C 18,9 C 74 % 0 lf 1007,7 hPa 0,0 l/m 0 min 0 min 0 W/m 0,0 km/h (0 Bft) 93,62 %
27.08.2015 02:18 21,7 C 21,1 C 19,4 C 75 % 0 lf 1007,8 hPa 0,0 l/m 0 min 0 min 0 W/m 0,0 km/h (0 Bft) 97,87 %
27.08.2015 02:20 21,7 C 21,1 C 19,4 C 75 % 0 lf 1007,7 hPa 0,0 l/m 0 min 0 min 0 W/m 0,0 km/h (0 Bft) 97,87 %
27.08.2015 02:22 21,7 C 21,1 C 19,4 C 75 % 0 lf 1007,7 hPa 0,0 l/m 0 min 0 min 0 W/m 0,0 km/h (0 Bft) 97,92 %
27.08.2015 02:24 21,6 C 21,1 C 19,4 C 75 % 0 lf 1007,7 hPa 0,0 l/m 0 min 0 min 0 W/m 0,0 km/h (0 Bft) 97,87 %
27.08.2015 02:26 21,6 C 21,1 C 19,4 C 75 % 0 lf 1007,6 hPa 0,0 l/m 0 min 0 min 0 W/m 0,0 km/h (0 Bft) 95,74 %
27.08.2015 02:28 21,6 C 21,1 C 19,4 C 75 % 0 lf 1007,6 hPa 0,0 l/m 0 min 0 min 0 W/m 0,0 km/h (0 Bft) 97,92 %
27.08.2015 02:30 21,5 C 21,1 C 19,4 C 75 % 0 lf 1007,6 hPa 0,0 l/m 0 min 0 min 0 W/m 0,0 km/h (0 Bft) 97,87 %
27.08.2015 02:32 21,5 C 21,1 C 19,4 C 75 % 0 lf 1007,6 hPa 0,0 l/m 0 min 0 min 0 W/m 6,3 km/h (2 Bft) 95,83 %
27.08.2015 02:34 21,4 C 21,1 C 19,4 C 76 % 0 lf 1007,7 hPa 0,0 l/m 0 min 0 min 0 W/m 10,5 km/h (2 Bft) 97,87 %
27.08.2015 02:36 21,4 C 21,1 C 19,4 C 76 % 0 lf 1007,7 hPa 0,0 l/m 0 min 0 min 0 W/m 0,0 km/h (0 Bft) 93,62 %
27.08.2015 02:38 21,4 C 21,1 C 19,4 C 76 % 0 lf 1007,7 hPa 0,0 l/m 0 min 0 min 0 W/m 0,0 km/h (0 Bft) 95,74 %
27.08.2015 02:40 21,4 C 21,1 C 19,4 C 76 % 0 lf 1007,7 hPa 0,0 l/m 0 min 0 min 0 W/m 0,0 km/h (0 Bft) 97,87 %
27.08.2015 02:42 21,4 C 21,1 C 19,4 C 76 % 0 lf 1007,7 hPa 0,0 l/m 0 min 0 min 0 W/m 0,0 km/h (0 Bft) 97,87 %
27.08.2015 02:44 21,4 C 21,1 C 19,4 C 76 % 0 lf 1007,6 hPa 0,0 l/m 0 min 0 min 0 W/m 0,0 km/h (0 Bft) 95,74 %
27.08.2015 02:46 21,4 C 21,1 C 19,4 C 76 % 0 lf 1007,6 hPa 0,0 l/m 0 min 0 min 0 W/m 0,0 km/h (0 Bft) 94,29 %
27.08.2015 02:48 21,3 C 21,1 C 19,4 C 76 % 0 lf 1007,7 hPa 0,0 l/m 0 min 0 min 0 W/m 0,0 km/h (0 Bft) 95,74 %
27.08.2015 02:50 21,3 C 21,1 C 19,4 C 77 % 0 lf 1007,7 hPa 0,0 l/m 0 min 0 min 0 W/m 0,0 km/h (0 Bft) 97,83 %
27.08.2015 02:52 21,3 C 21,1 C 19,4 C 77 % 0 lf 1007,7 hPa 0,0 l/m 0 min 0 min 0 W/m 0,0 km/h (0 Bft) 95,74 %
27.08.2015 02:54 21,3 C 21,1 C 19,4 C 77 % 0 lf 1007,7 hPa 0,0 l/m 0 min 0 min 0 W/m 0,0 km/h (0 Bft) 95,74 %
27.08.2015 02:56 21,3 C 21,1 C 19,4 C 77 % 0 lf 1007,7 hPa 0,0 l/m 0 min 0 min 0 W/m 0,0 km/h (0 Bft) 93,62 %
27.08.2015 02:58 21,3 C 21,1 C 19,4 C 77 % 0 lf 1007,6 hPa 0,0 l/m 0 min 0 min 0 W/m 0,0 km/h (0 Bft) 95,74 %
27.08.2015 03:00 21,3 C 21,1 C 19,4 C 77 % 0 lf 1007,6 hPa 0,0 l/m 0 min 0 min 0 W/m 0,0 km/h (0 Bft) 95,74 %
27.08.2015 03:02 21,3 C 21,1 C 19,4 C 77 % 0 lf 1007,6 hPa 0,0 l/m 0 min 0 min 0 W/m 0,0 km/h (0 Bft) 95,65 %
27.08.2015 03:04 21,3 C 21,1 C 19,4 C 77 % 0 lf 1007,5 hPa 0,0 l/m 0 min 0 min 0 W/m 0,0 km/h (0 Bft) 93,62 %
27.08.2015 03:06 21,3 C 21,1 C 19,4 C 77 % 0 lf 1007,5 hPa 0,0 l/m 0 min 0 min 0 W/m 0,0 km/h (0 Bft) 95,74 %
27.08.2015 03:08 21,3 C 21,1 C 19,4 C 77 % 0 lf 1007,6 hPa 0,0 l/m 0 min 0 min 0 W/m 0,0 km/h (0 Bft) 93,62 %
27.08.2015 03:10 21,3 C 21,1 C 19,4 C 77 % 0 lf 1007,6 hPa 0,0 l/m 0 min 0 min 0 W/m 2,1 km/h (1 Bft) 95,74 %
27.08.2015 03:12 21,3 C 21,1 C 19,4 C 77 % 0 lf 1007,5 hPa 0,0 l/m 0 min 0 min 0 W/m 2,1 km/h (1 Bft) 91,49 %
27.08.2015 03:14 21,3 C 21,1 C 19,4 C 77 % 0 lf 1007,5 hPa 0,0 l/m 0 min 0 min 0 W/m 0,0 km/h (0 Bft) 93,48 %
27.08.2015 03:16 21,3 C 21,1 C 19,4 C 77 % 0 lf 1007,5 hPa 0,0 l/m 0 min 0 min 0 W/m 0,0 km/h (0 Bft) 93,62 %
27.08.2015 03:18 21,3 C 21,1 C 19,4 C 77 % 0 lf 1007,5 hPa 0,0 l/m 0 min 0 min 0 W/m 0,0 km/h (0 Bft) 93,62 %
27.08.2015 03:20 21,3 C 21,1 C 19,4 C 77 % 0 lf 1007,4 hPa 0,0 l/m 0 min 0 min 0 W/m 0,0 km/h (0 Bft) 91,49 %
27.08.2015 03:22 21,2 C 21,1 C 19,4 C 77 % 0 lf 1007,3 hPa 0,0 l/m 0 min 0 min 0 W/m 0,0 km/h (0 Bft) 95,74 %
27.08.2015 03:24 21,2 C 21,1 C 19,4 C 78 % 0 lf 1007,3 hPa 0,0 l/m 0 min 0 min 0 W/m 0,0 km/h (0 Bft) 95,65 %
27.08.2015 03:26 21,2 C 21,1 C 19,4 C 78 % 0 lf 1007,3 hPa 0,0 l/m 0 min 0 min 0 W/m 0,0 km/h (0 Bft) 91,49 %
27.08.2015 03:28 21,2 C 21,1 C 19,4 C 78 % 0 lf 1007,4 hPa 0,0 l/m 0 min 0 min 0 W/m 0,0 km/h (0 Bft) 95,74 %
27.08.2015 03:30 21,2 C 21,1 C 19,4 C 78 % 0 lf 1007,4 hPa 0,0 l/m 0 min 0 min 0 W/m 0,0 km/h (0 Bft) 93,62 %
27.08.2015 03:32 21,2 C 21,1 C 19,4 C 78 % 0 lf 1007,5 hPa 0,0 l/m 0 min 2 min 0 W/m 0,0 km/h (0 Bft) 95,74 %
27.08.2015 03:34 21,2 C 21,1 C 18,9 C 78 % 2 lf 1007,6 hPa 0,0 l/m 0 min 2 min 0 W/m 0,0 km/h (0 Bft) 95,74 %
27.08.2015 03:36 21,2 C 20,6 C 18,9 C 78 % 1 lf 1007,6 hPa 0,0 l/m 0 min 2 min 0 W/m 0,0 km/h (0 Bft) 96,15 %
27.08.2015 03:38 21,2 C 20,6 C 18,9 C 78 % 0 lf 1007,6 hPa 0,0 l/m 0 min 0 min 0 W/m 0,0 km/h (0 Bft) 93,62 %
27.08.2015 03:40 21,2 C 21,1 C 18,9 C 78 % 0 lf 1007,7 hPa 0,0 l/m 0 min 0 min 0 W/m 12,6 km/h (3 Bft) 95,74 %
27.08.2015 03:42 21,2 C 20,6 C 18,3 C 79 % 2 lf 1007,7 hPa 0,0 l/m 0 min 2 min 0 W/m 0,0 km/h (0 Bft) 95,74 %
27.08.2015 03:44 21,2 C 18,9 C 17,8 C 79 % 15 lf 1007,8 hPa 0,0 l/m 0 min 2 min 0 W/m 6,3 km/h (2 Bft) 95,74 %
27.08.2015 03:46 21,2 C 18,3 C 17,2 C 79 % 15 lf 1007,6 hPa 0,0 l/m 0 min 2 min 0 W/m 0,0 km/h (0 Bft) 93,62 %
27.08.2015 03:48 21,2 C 18,3 C 17,2 C 80 % 15 lf 1007,6 hPa 0,0 l/m 0 min 2 min 0 W/m 0,0 km/h (0 Bft) 95,74 %
27.08.2015 03:50 21,1 C 18,3 C 16,7 C 80 % 15 lf 1007,6 hPa 0,0 l/m 0 min 0 min 0 W/m 0,0 km/h (0 Bft) 93,62 %
27.08.2015 03:52 21,1 C 18,3 C 17,2 C 80 % 15 lf 1007,7 hPa 0,0 l/m 0 min 0 min 0 W/m 0,0 km/h (0 Bft) 95,74 %
27.08.2015 03:54 21,1 C 18,3 C 17,2 C 81 % 15 lf 1007,7 hPa 0,0 l/m 0 min 0 min 0 W/m 0,0 km/h (0 Bft) 93,62 %
27.08.2015 03:56 21,0 C 18,3 C 16,7 C 81 % 15 lf 1007,7 hPa 0,0 l/m 0 min 0 min 0 W/m 2,1 km/h (1 Bft) 91,67 %
27.08.2015 03:58 21,0 C 18,3 C 16,7 C 81 % 15 lf 1007,6 hPa 0,0 l/m 0 min 0 min 0 W/m 0,0 km/h (0 Bft) 95,74 %
27.08.2015 04:00 20,9 C 18,3 C 17,2 C 81 % 15 lf 1007,6 hPa 0,0 l/m 0 min 0 min 0 W/m 0,0 km/h (0 Bft) 97,87 %
27.08.2015 04:05 20,8 C 18,3 C 17,2 C 81 % 15 lf 1007,5 hPa 0,0 l/m 0 min 0 min 0 W/m 0,0 km/h (0 Bft) 95,35 %
27.08.2015 04:06 20,8 C 18,3 C 17,2 C 82 % 15 lf 1007,5 hPa 0,0 l/m 0 min 0 min 0 W/m 0,0 km/h (0 Bft) 100,00 %
27.08.2015 04:08 20,8 C 18,9 C 17,2 C 81 % 2 lf 1007,5 hPa 0,0 l/m 0 min 0 min 0 W/m 0,0 km/h (0 Bft) 100,00 %
27.08.2015 04:10 20,8 C 18,9 C 17,2 C 82 % 0 lf 1007,6 hPa 0,0 l/m 0 min 0 min 0 W/m 0,0 km/h (0 Bft) 100,00 %
27.08.2015 04:12 20,7 C 18,9 C 17,2 C 82 % 0 lf 1007,7 hPa 0,0 l/m 0 min 0 min 0 W/m 0,0 km/h (0 Bft) 100,00 %
27.08.2015 04:14 20,7 C 18,9 C 17,2 C 82 % 0 lf 1007,7 hPa 0,0 l/m 0 min 0 min 0 W/m 0,0 km/h (0 Bft) 100,00 %
27.08.2015 04:16 20,7 C 18,9 C 17,8 C 82 % 0 lf 1007,7 hPa 0,0 l/m 0 min 0 min 0 W/m 2,1 km/h (1 Bft) 97,87 %
27.08.2015 04:18 20,6 C 18,9 C 17,8 C 82 % 0 lf 1007,7 hPa 0,0 l/m 0 min 0 min 0 W/m 2,1 km/h (1 Bft) 100,00 %
27.08.2015 04:20 20,6 C 18,9 C 17,8 C 82 % 0 lf 1007,8 hPa 0,0 l/m 0 min 0 min 0 W/m 2,1 km/h (1 Bft) 97,83 %
27.08.2015 04:22 20,6 C 19,4 C 17,8 C 82 % 0 lf 1007,8 hPa 0,0 l/m 0 min 0 min 0 W/m 0,0 km/h (0 Bft) 100,00 %
27.08.2015 04:24 20,6 C 18,9 C 17,8 C 82 % 5 lf 1007,8 hPa 0,0 l/m 0 min 2 min 0 W/m 2,1 km/h (1 Bft) 97,83 %
27.08.2015 04:26 20,6 C 18,9 C 17,2 C 82 % 9 lf 1007,7 hPa 0,2 l/m 0 min 2 min 0 W/m 6,3 km/h (2 Bft) 97,87 %
27.08.2015 04:28 20,6 C 18,9 C 17,2 C 82 % 5 lf 1007,7 hPa 0,0 l/m 0 min 2 min 0 W/m 2,1 km/h (1 Bft) 100,00 %
27.08.2015 04:30 20,6 C 18,9 C 17,2 C 82 % 11 lf 1007,8 hPa 0,0 l/m 0 min 2 min 0 W/m 6,3 km/h (2 Bft) 97,87 %
27.08.2015 04:32 20,6 C 18,9 C 17,2 C 83 % 6 lf 1007,8 hPa 0,0 l/m 0 min 2 min 0 W/m 6,3 km/h (2 Bft) 95,74 %
27.08.2015 04:34 20,6 C 18,9 C 17,2 C 83 % 3 lf 1007,8 hPa 0,0 l/m 0 min 2 min 0 W/m 6,3 km/h (2 Bft) 95,74 %
27.08.2015 04:36 20,5 C 19,4 C 17,2 C 83 % 0 lf 1007,9 hPa 0,0 l/m 0 min 2 min 0 W/m 8,4 km/h (2 Bft) 100,00 %
27.08.2015 04:38 20,5 C 19,4 C 17,2 C 84 % 0 lf 1007,9 hPa 0,0 l/m 0 min 0 min 0 W/m 2,1 km/h (1 Bft) 100,00 %
27.08.2015 04:40 20,5 C 19,4 C 17,2 C 84 % 0 lf 1007,9 hPa 0,0 l/m 0 min 2 min 0 W/m 8,4 km/h (2 Bft) 97,87 %
27.08.2015 04:42 20,4 C 19,4 C 17,2 C 84 % 0 lf 1007,8 hPa 0,0 l/m 0 min 0 min 0 W/m 0,0 km/h (0 Bft) 100,00 %
27.08.2015 04:44 20,4 C 19,4 C 17,2 C 84 % 0 lf 1007,8 hPa 0,0 l/m 0 min 0 min 0 W/m 6,3 km/h (2 Bft) 96,23 %
27.08.2015 04:46 20,4 C 19,4 C 17,2 C 84 % 0 lf 1007,7 hPa 0,0 l/m 0 min 0 min 0 W/m 4,2 km/h (1 Bft) 97,87 %
27.08.2015 04:48 20,4 C 19,4 C 17,2 C 84 % 0 lf 1007,7 hPa 0,0 l/m 0 min 0 min 0 W/m 6,3 km/h (2 Bft) 93,62 %
27.08.2015 04:50 20,3 C 19,4 C 17,2 C 84 % 0 lf 1007,7 hPa 0,0 l/m 0 min 0 min 0 W/m 8,4 km/h (2 Bft) 95,74 %
27.08.2015 04:52 20,3 C 19,4 C 17,2 C 84 % 0 lf 1007,8 hPa 0,0 l/m 0 min 0 min 0 W/m 6,3 km/h (2 Bft) 93,75 %
27.08.2015 04:54 20,3 C 19,4 C 17,8 C 84 % 0 lf 1007,6 hPa 0,0 l/m 0 min 0 min 0 W/m 4,2 km/h (1 Bft) 95,74 %
27.08.2015 04:56 20,2 C 20,0 C 17,8 C 85 % 0 lf 1007,6 hPa 0,0 l/m 0 min 0 min 0 W/m 12,6 km/h (3 Bft) 95,83 %
27.08.2015 04:58 20,2 C 20,0 C 17,8 C 85 % 0 lf 1007,7 hPa 0,0 l/m 0 min 0 min 0 W/m 6,3 km/h (2 Bft) 95,65 %
27.08.2015 05:00 20,2 C 20,0 C 17,8 C 85 % 0 lf 1007,7 hPa 0,0 l/m 0 min 0 min 0 W/m 2,1 km/h (1 Bft) 97,92 %
27.08.2015 05:02 20,1 C 19,4 C 17,8 C 85 % 0 lf 1007,7 hPa 0,0 l/m 0 min 0 min 0 W/m 0,0 km/h (0 Bft) 93,62 %
27.08.2015 05:04 20,1 C 20,0 C 17,8 C 85 % 0 lf 1007,7 hPa 0,0 l/m 0 min 0 min 0 W/m 4,2 km/h (1 Bft) 93,75 %
27.08.2015 05:06 20,1 C 20,0 C 17,8 C 85 % 0 lf 1007,6 hPa 0,0 l/m 0 min 0 min 0 W/m 6,3 km/h (2 Bft) 91,49 %
27.08.2015 05:08 20,1 C 20,0 C 17,8 C 85 % 0 lf 1007,7 hPa 0,0 l/m 0 min 0 min 0 W/m 6,3 km/h (2 Bft) 93,62 %
27.08.2015 05:10 20,0 C 20,0 C 17,8 C 85 % 0 lf 1007,7 hPa 0,0 l/m 0 min 0 min 0 W/m 6,3 km/h (2 Bft) 95,74 %
27.08.2015 05:12 20,0 C 20,0 C 17,8 C 85 % 0 lf 1008,0 hPa 0,0 l/m 0 min 0 min 0 W/m 2,1 km/h (1 Bft) 95,74 %
27.08.2015 05:14 20,0 C 20,0 C 17,8 C 85 % 0 lf 1008,1 hPa 0,0 l/m 0 min 0 min 0 W/m 10,5 km/h (2 Bft) 97,87 %
27.08.2015 05:16 19,9 C 20,0 C 17,8 C 85 % 0 lf 1008,1 hPa 0,0 l/m 0 min 0 min 0 W/m 6,3 km/h (2 Bft) 100,00 %
27.08.2015 05:18 19,9 C 20,0 C 17,8 C 85 % 0 lf 1008,1 hPa 0,0 l/m 0 min 0 min 0 W/m 8,4 km/h (2 Bft) 97,83 %
27.08.2015 05:20 19,9 C 20,0 C 18,3 C 85 % 0 lf 1008,1 hPa 0,0 l/m 0 min 0 min 0 W/m 6,3 km/h (2 Bft) 97,87 %
27.08.2015 05:22 19,9 C 20,0 C 18,3 C 85 % 0 lf 1008,1 hPa 0,0 l/m 0 min 0 min 0 W/m 6,3 km/h (2 Bft) 95,74 %
27.08.2015 05:24 19,9 C 20,0 C 18,3 C 85 % 0 lf 1008,0 hPa 0,0 l/m 0 min 0 min 0 W/m 8,4 km/h (2 Bft) 95,74 %
27.08.2015 05:26 19,9 C 20,0 C 18,3 C 85 % 0 lf 1008,1 hPa 0,0 l/m 0 min 0 min 0 W/m 8,4 km/h (2 Bft) 100,00 %
27.08.2015 05:28 19,9 C 20,0 C 18,3 C 85 % 0 lf 1008,1 hPa 0,0 l/m 0 min 0 min 0 W/m 2,1 km/h (1 Bft) 97,87 %
27.08.2015 05:30 19,9 C 20,0 C 18,3 C 85 % 0 lf 1008,1 hPa 0,0 l/m 0 min 0 min 0 W/m 10,5 km/h (2 Bft) 95,74 %
27.08.2015 05:32 19,9 C 20,0 C 18,3 C 85 % 0 lf 1008,0 hPa 0,0 l/m 0 min 0 min 0 W/m 10,5 km/h (2 Bft) 100,00 %
27.08.2015 05:34 19,9 C 20,0 C 18,3 C 85 % 0 lf 1008,1 hPa 0,0 l/m 0 min 0 min 0 W/m 4,2 km/h (1 Bft) 97,83 %
27.08.2015 05:36 19,9 C 20,0 C 18,3 C 85 % 0 lf 1008,1 hPa 0,0 l/m 0 min 0 min 0 W/m 6,3 km/h (2 Bft) 94,34 %
27.08.2015 05:38 19,9 C 20,0 C 18,3 C 85 % 0 lf 1008,2 hPa 0,0 l/m 0 min 0 min 0 W/m 2,1 km/h (1 Bft) 97,92 %
27.08.2015 05:40 19,9 C 20,0 C 18,3 C 85 % 0 lf 1008,1 hPa 0,0 l/m 0 min 0 min 0 W/m 0,0 km/h (0 Bft) 100,00 %
27.08.2015 05:42 19,9 C 20,0 C 18,3 C 85 % 0 lf 1008,1 hPa 0,0 l/m 0 min 0 min 0 W/m 8,4 km/h (2 Bft) 95,74 %
27.08.2015 05:44 19,9 C 20,0 C 18,3 C 85 % 0 lf 1008,1 hPa 0,0 l/m 0 min 0 min 0 W/m 8,4 km/h (2 Bft) 100,00 %
27.08.2015 05:46 19,9 C 20,0 C 18,3 C 85 % 0 lf 1008,1 hPa 0,0 l/m 0 min 0 min 0 W/m 4,2 km/h (1 Bft) 93,75 %
27.08.2015 05:48 19,9 C 20,0 C 18,3 C 85 % 0 lf 1008,1 hPa 0,0 l/m 0 min 0 min 0 W/m 0,0 km/h (0 Bft) 97,87 %
27.08.2015 05:50 19,9 C 20,0 C 18,3 C 85 % 0 lf 1008,2 hPa 0,0 l/m 0 min 0 min 0 W/m 2,1 km/h (1 Bft) 100,00 %
27.08.2015 05:52 19,9 C 20,0 C 18,3 C 85 % 0 lf 1008,1 hPa 0,0 l/m 0 min 0 min 0 W/m 12,6 km/h (3 Bft) 91,49 %
27.08.2015 05:54 19,9 C 20,0 C 18,3 C 85 % 0 lf 1008,1 hPa 0,0 l/m 0 min 0 min 0 W/m 2,1 km/h (1 Bft) 100,00 %
27.08.2015 05:56 19,9 C 20,0 C 18,3 C 85 % 0 lf 1008,0 hPa 0,0 l/m 0 min 0 min 0 W/m 4,2 km/h (1 Bft) 100,00 %
27.08.2015 05:58 19,9 C 20,0 C 18,3 C 84 % 0 lf 1008,0 hPa 0,0 l/m 0 min 0 min 0 W/m 2,1 km/h (1 Bft) 100,00 %
27.08.2015 06:00 19,9 C 20,0 C 18,3 C 84 % 0 lf 1008,0 hPa 0,0 l/m 0 min 0 min 0 W/m 10,5 km/h (2 Bft) 98,11 %
27.08.2015 06:02 19,9 C 20,0 C 18,3 C 84 % 0 lf 1008,0 hPa 0,0 l/m 0 min 0 min 0 W/m 18,8 km/h (3 Bft) 100,00 %
27.08.2015 06:05 19,9 C 20,0 C 18,3 C 84 % 0 lf 1007,9 hPa 0,0 l/m 0 min 0 min 0 W/m 8,4 km/h (2 Bft) 100,00 %
27.08.2015 06:10 19,9 C 20,0 C 18,3 C 84 % 0 lf 1008,0 hPa 0,0 l/m 0 min 0 min 0 W/m 10,5 km/h (2 Bft) 98,90 %
27.08.2015 06:12 19,9 C 20,0 C 18,3 C 84 % 0 lf 1008,0 hPa 0,0 l/m 0 min 0 min 0 W/m 10,5 km/h (2 Bft) 100,00 %
27.08.2015 06:14 19,9 C 20,0 C 18,3 C 84 % 0 lf 1008,1 hPa 0,0 l/m 0 min 0 min 0 W/m 0,0 km/h (0 Bft) 96,30 %
27.08.2015 06:16 19,9 C 20,0 C 18,3 C 84 % 0 lf 1008,1 hPa 0,0 l/m 0 min 0 min 0 W/m 2,1 km/h (1 Bft) 97,92 %
27.08.2015 06:18 20,0 C 20,0 C 18,3 C 83 % 0 lf 1008,0 hPa 0,0 l/m 0 min 0 min 0 W/m 0,0 km/h (0 Bft) 97,87 %
27.08.2015 06:20 20,0 C 20,0 C 18,3 C 83 % 0 lf 1007,9 hPa 0,0 l/m 0 min 0 min 0 W/m 2,1 km/h (1 Bft) 95,65 %
27.08.2015 06:22 20,0 C 20,0 C 18,3 C 84 % 0 lf 1007,9 hPa 0,0 l/m 0 min 0 min 0 W/m 4,2 km/h (1 Bft) 97,87 %
27.08.2015 06:24 20,0 C 20,0 C 18,3 C 84 % 0 lf 1007,9 hPa 0,0 l/m 0 min 0 min 0 W/m 0,0 km/h (0 Bft) 97,87 %
27.08.2015 06:26 20,0 C 20,0 C 18,3 C 84 % 0 lf 1007,8 hPa 0,0 l/m 0 min 0 min 0 W/m 12,6 km/h (3 Bft) 93,75 %
27.08.2015 06:28 20,0 C 20,0 C 18,3 C 84 % 0 lf 1007,8 hPa 0,0 l/m 0 min 0 min 0 W/m 12,6 km/h (3 Bft) 97,87 %
27.08.2015 06:30 20,0 C 20,0 C 18,3 C 84 % 0 lf 1008,0 hPa 0,0 l/m 0 min 0 min 0 W/m 10,5 km/h (2 Bft) 95,74 %
27.08.2015 06:32 20,0 C 20,0 C 18,3 C 84 % 1 lf 1008,2 hPa 0,0 l/m 0 min 0 min 0 W/m 2,1 km/h (1 Bft) 95,65 %
27.08.2015 06:34 20,0 C 20,0 C 18,3 C 84 % 11 lf 1008,4 hPa 0,0 l/m 0 min 2 min 0 W/m 0,0 km/h (0 Bft) 95,74 %
27.08.2015 06:36 20,0 C 20,0 C 18,3 C 84 % 14 lf 1008,5 hPa 0,0 l/m 0 min 2 min 0 W/m 0,0 km/h (0 Bft) 93,75 %
27.08.2015 06:38 20,0 C 19,4 C 17,8 C 84 % 13 lf 1008,5 hPa 0,0 l/m 0 min 2 min 0 W/m 0,0 km/h (0 Bft) 93,62 %
27.08.2015 06:40 20,0 C 19,4 C 17,8 C 84 % 9 lf 1008,5 hPa 0,0 l/m 0 min 2 min 0 W/m 0,0 km/h (0 Bft) 91,67 %
27.08.2015 06:42 20,0 C 19,4 C 17,8 C 84 % 4 lf 1008,5 hPa 0,0 l/m 0 min 2 min 0 W/m 0,0 km/h (0 Bft) 93,62 %
27.08.2015 06:44 20,0 C 19,4 C 17,8 C 84 % 2 lf 1008,5 hPa 0,0 l/m 0 min 0 min 0 W/m 0,0 km/h (0 Bft) 95,74 %
27.08.2015 06:46 20,0 C 19,4 C 17,8 C 84 % 0 lf 1008,5 hPa 0,0 l/m 0 min 0 min 0 W/m 0,0 km/h (0 Bft) 97,14 %
27.08.2015 06:48 20,0 C 19,4 C 17,8 C 84 % 0 lf 1008,5 hPa 0,0 l/m 0 min 0 min 0 W/m 0,0 km/h (0 Bft) 91,49 %
27.08.2015 06:50 20,0 C 19,4 C 17,8 C 84 % 0 lf 1008,5 hPa 0,0 l/m 0 min 0 min 0 W/m 0,0 km/h (0 Bft) 93,62 %
27.08.2015 06:52 20,0 C 19,4 C 17,8 C 84 % 0 lf 1008,5 hPa 0,0 l/m 0 min 2 min 0 W/m 0,0 km/h (0 Bft) 93,62 %
27.08.2015 06:54 19,9 C 19,4 C 17,8 C 84 % 2 lf 1008,6 hPa 0,0 l/m 0 min 0 min 0 W/m 0,0 km/h (0 Bft) 91,49 %
27.08.2015 06:56 19,9 C 19,4 C 17,8 C 84 % 2 lf 1008,6 hPa 0,0 l/m 0 min 2 min 0 W/m 0,0 km/h (0 Bft) 93,48 %
27.08.2015 06:58 19,9 C 19,4 C 17,8 C 84 % 0 lf 1008,6 hPa 0,0 l/m 0 min 2 min 3 W/m 0,0 km/h (0 Bft) 95,74 %
27.08.2015 07:00 19,9 C 19,4 C 17,8 C 84 % 3 lf 1008,5 hPa 0,0 l/m 0 min 2 min 5 W/m 0,0 km/h (0 Bft) 90,57 %
27.08.2015 07:02 19,9 C 19,4 C 17,8 C 85 % 3 lf 1008,5 hPa 0,0 l/m 0 min 2 min 5 W/m 0,0 km/h (0 Bft) 91,67 %
27.08.2015 07:04 19,9 C 19,4 C 17,2 C 85 % 2 lf 1008,5 hPa 0,0 l/m 0 min 2 min 5 W/m 0,0 km/h (0 Bft) 95,83 %
27.08.2015 07:06 19,9 C 19,4 C 17,2 C 85 % 1 lf 1008,6 hPa 0,0 l/m 0 min 0 min 5 W/m 0,0 km/h (0 Bft) 95,74 %
27.08.2015 07:08 19,8 C 19,4 C 17,2 C 85 % 1 lf 1008,7 hPa 0,0 l/m 0 min 0 min 5 W/m 0,0 km/h (0 Bft) 97,87 %
27.08.2015 07:10 19,8 C 19,4 C 17,2 C 85 % 2 lf 1008,7 hPa 0,0 l/m 0 min 0 min 7 W/m 0,0 km/h (0 Bft) 95,83 %
27.08.2015 07:12 19,8 C 19,4 C 17,2 C 85 % 1 lf 1008,8 hPa 0,0 l/m 0 min 0 min 9 W/m 0,0 km/h (0 Bft) 95,92 %
27.08.2015 07:14 19,8 C 19,4 C 17,2 C 86 % 0 lf 1008,8 hPa 0,0 l/m 0 min 0 min 9 W/m 2,1 km/h (1 Bft) 93,62 %
27.08.2015 07:16 19,7 C 18,9 C 17,2 C 85 % 2 lf 1008,9 hPa 0,0 l/m 0 min 0 min 7 W/m 0,0 km/h (0 Bft) 88,57 %
27.08.2015 07:18 19,7 C 18,9 C 17,8 C 85 % 0 lf 1008,9 hPa 0,0 l/m 0 min 2 min 8 W/m 6,3 km/h (2 Bft) 95,74 %
27.08.2015 07:20 19,7 C 18,9 C 17,8 C 85 % 6 lf 1008,8 hPa 0,0 l/m 0 min 2 min 9 W/m 0,0 km/h (0 Bft) 95,65 %
27.08.2015 07:22 19,6 C 18,9 C 17,8 C 84 % 14 lf 1008,7 hPa 0,0 l/m 0 min 2 min 12 W/m 6,3 km/h (2 Bft) 95,74 %
27.08.2015 07:24 19,6 C 18,9 C 17,2 C 84 % 14 lf 1008,9 hPa 0,0 l/m 0 min 2 min 14 W/m 0,0 km/h (0 Bft) 97,87 %
27.08.2015 07:26 19,5 C 18,3 C 17,2 C 84 % 14 lf 1008,9 hPa 0,0 l/m 0 min 2 min 17 W/m 0,0 km/h (0 Bft) 95,74 %
27.08.2015 07:28 19,5 C 18,3 C 16,7 C 84 % 13 lf 1008,9 hPa 0,0 l/m 0 min 2 min 18 W/m 0,0 km/h (0 Bft) 92,45 %
27.08.2015 07:30 19,4 C 18,9 C 16,7 C 84 % 11 lf 1008,9 hPa 0,0 l/m 0 min 2 min 18 W/m 0,0 km/h (0 Bft) 95,83 %
27.08.2015 07:32 19,4 C 18,9 C 16,7 C 84 % 9 lf 1009,1 hPa 0,0 l/m 0 min 2 min 17 W/m 0,0 km/h (0 Bft) 95,83 %
27.08.2015 07:34 19,4 C 18,9 C 16,7 C 83 % 4 lf 1009,2 hPa 0,0 l/m 0 min 2 min 16 W/m 0,0 km/h (0 Bft) 95,83 %
27.08.2015 07:36 19,3 C 18,9 C 16,7 C 83 % 1 lf 1009,2 hPa 0,0 l/m 0 min 2 min 17 W/m 0,0 km/h (0 Bft) 97,87 %
27.08.2015 07:38 19,3 C 18,9 C 16,7 C 83 % 1 lf 1009,1 hPa 0,0 l/m 0 min 2 min 15 W/m 0,0 km/h (0 Bft) 95,74 %
27.08.2015 07:40 19,3 C 18,9 C 16,7 C 83 % 3 lf 1009,0 hPa 0,0 l/m 0 min 2 min 14 W/m 0,0 km/h (0 Bft) 95,74 %
27.08.2015 07:42 19,3 C 18,9 C 16,7 C 83 % 14 lf 1009,1 hPa 0,0 l/m 0 min 2 min 14 W/m 0,0 km/h (0 Bft) 97,83 %
27.08.2015 07:44 19,2 C 17,8 C 16,7 C 84 % 15 lf 1009,0 hPa 0,0 l/m 0 min 2 min 17 W/m 0,0 km/h (0 Bft) 95,83 %
27.08.2015 07:46 19,2 C 17,8 C 16,1 C 84 % 15 lf 1009,0 hPa 0,0 l/m 0 min 2 min 23 W/m 0,0 km/h (0 Bft) 95,83 %
27.08.2015 07:48 19,2 C 17,8 C 16,1 C 84 % 15 lf 1009,2 hPa 0,0 l/m 0 min 2 min 22 W/m 2,1 km/h (1 Bft) 97,87 %
27.08.2015 07:50 19,2 C 17,8 C 16,1 C 84 % 15 lf 1009,2 hPa 0,0 l/m 0 min 0 min 19 W/m 0,0 km/h (0 Bft) 97,87 %
27.08.2015 07:52 19,2 C 17,8 C 16,1 C 84 % 15 lf 1009,2 hPa 0,0 l/m 0 min 2 min 19 W/m 0,0 km/h (0 Bft) 95,65 %
27.08.2015 07:54 19,2 C 17,8 C 16,1 C 85 % 15 lf 1009,1 hPa 0,0 l/m 0 min 0 min 19 W/m 0,0 km/h (0 Bft) 94,29 %
27.08.2015 07:56 19,1 C 17,8 C 16,1 C 84 % 15 lf 1009,0 hPa 0,0 l/m 0 min 0 min 21 W/m 0,0 km/h (0 Bft) 93,62 %
27.08.2015 07:58 19,1 C 17,8 C 16,1 C 84 % 14 lf 1009,0 hPa 0,0 l/m 0 min 0 min 25 W/m 0,0 km/h (0 Bft) 97,87 %
27.08.2015 08:00 19,1 C 17,8 C 16,1 C 85 % 13 lf 1009,0 hPa 0,0 l/m 0 min 2 min 24 W/m 0,0 km/h (0 Bft) 97,87 %
27.08.2015 08:02 19,1 C 17,8 C 16,1 C 85 % 13 lf 1009,0 hPa 0,0 l/m 0 min 2 min 23 W/m 0,0 km/h (0 Bft) 97,87 %
27.08.2015 08:04 19,1 C 17,8 C 16,1 C 85 % 11 lf 1008,9 hPa 0,0 l/m 0 min 2 min 21 W/m 0,0 km/h (0 Bft) 98,15 %
27.08.2015 08:06 19,0 C 17,8 C 16,1 C 85 % 10 lf 1008,9 hPa 0,0 l/m 0 min 2 min 23 W/m 2,1 km/h (1 Bft) 97,83 %
27.08.2015 08:08 19,0 C 17,2 C 16,1 C 85 % 7 lf 1009,0 hPa 0,0 l/m 0 min 2 min 25 W/m 0,0 km/h (0 Bft) 97,87 %
27.08.2015 08:10 18,9 C 17,2 C 16,1 C 85 % 5 lf 1009,1 hPa 0,0 l/m 0 min 2 min 23 W/m 0,0 km/h (0 Bft) 95,92 %
27.08.2015 08:12 18,9 C 17,2 C 16,1 C 85 % 7 lf 1009,0 hPa 0,0 l/m 0 min 2 min 21 W/m 2,1 km/h (1 Bft) 97,87 %
27.08.2015 08:14 18,9 C 17,2 C 15,6 C 85 % 5 lf 1009,1 hPa 0,0 l/m 0 min 2 min 24 W/m 2,1 km/h (1 Bft) 98,00 %
27.08.2015 08:16 18,8 C 17,2 C 16,1 C 85 % 5 lf 1009,3 hPa 0,0 l/m 0 min 0 min 25 W/m 0,0 km/h (0 Bft) 100,00 %
27.08.2015 08:18 18,8 C 17,2 C 15,6 C 85 % 7 lf 1009,3 hPa 0,0 l/m 0 min 2 min 26 W/m 0,0 km/h (0 Bft) 100,00 %
27.08.2015 08:20 18,8 C 17,2 C 15,6 C 85 % 8 lf 1009,3 hPa 0,0 l/m 0 min 2 min 25 W/m 2,1 km/h (1 Bft) 95,74 %
27.08.2015 08:22 18,7 C 17,2 C 15,6 C 85 % 11 lf 1009,4 hPa 0,0 l/m 0 min 2 min 25 W/m 0,0 km/h (0 Bft) 97,87 %
27.08.2015 08:24 18,7 C 17,2 C 15,6 C 85 % 9 lf 1009,5 hPa 0,0 l/m 0 min 2 min 25 W/m 0,0 km/h (0 Bft) 100,00 %
27.08.2015 08:26 18,7 C 17,2 C 15,6 C 85 % 4 lf 1009,5 hPa 0,0 l/m 0 min 2 min 23 W/m 0,0 km/h (0 Bft) 100,00 %
27.08.2015 08:28 18,6 C 17,2 C 15,6 C 85 % 2 lf 1009,6 hPa 0,0 l/m 0 min 2 min 22 W/m 0,0 km/h (0 Bft) 95,74 %
27.08.2015 08:30 18,6 C 17,2 C 15,6 C 85 % 1 lf 1009,7 hPa 0,0 l/m 0 min 2 min 18 W/m 6,3 km/h (2 Bft) 97,83 %
27.08.2015 08:32 18,6 C 17,2 C 15,6 C 86 % 10 lf 1009,7 hPa 0,0 l/m 0 min 2 min 21 W/m 0,0 km/h (0 Bft) 100,00 %
27.08.2015 08:34 18,5 C 17,2 C 15,6 C 86 % 15 lf 1009,7 hPa 0,2 l/m 0 min 2 min 23 W/m 0,0 km/h (0 Bft) 98,11 %
27.08.2015 08:36 18,4 C 17,2 C 15,6 C 86 % 15 lf 1009,7 hPa 0,0 l/m 0 min 2 min 22 W/m 0,0 km/h (0 Bft) 100,00 %
27.08.2015 08:38 18,4 C 16,7 C 15,6 C 86 % 15 lf 1009,7 hPa 0,0 l/m 0 min 2 min 30 W/m 2,1 km/h (1 Bft) 93,62 %
27.08.2015 08:40 18,4 C 16,7 C 15,6 C 86 % 15 lf 1009,7 hPa 0,0 l/m 0 min 2 min 36 W/m 0,0 km/h (0 Bft) 95,74 %
27.08.2015 08:42 18,3 C 16,7 C 15,6 C 86 % 15 lf 1009,7 hPa 0,0 l/m 0 min 2 min 42 W/m 6,3 km/h (2 Bft) 95,83 %
27.08.2015 08:44 18,3 C 17,2 C 15,6 C 86 % 15 lf 1009,6 hPa 0,0 l/m 0 min 2 min 51 W/m 0,0 km/h (0 Bft) 97,92 %
27.08.2015 08:46 18,3 C 17,2 C 15,6 C 86 % 15 lf 1009,5 hPa 0,0 l/m 0 min 2 min 53 W/m 0,0 km/h (0 Bft) 97,92 %
27.08.2015 08:48 18,2 C 16,7 C 15,6 C 86 % 15 lf 1009,3 hPa 0,0 l/m 0 min 2 min 56 W/m 0,0 km/h (0 Bft) 93,75 %
27.08.2015 08:50 18,2 C 16,7 C 15,6 C 86 % 15 lf 1009,4 hPa 0,0 l/m 0 min 2 min 54 W/m 2,1 km/h (1 Bft) 95,74 %
27.08.2015 08:52 18,2 C 16,7 C 15,6 C 86 % 15 lf 1009,5 hPa 0,0 l/m 0 min 2 min 50 W/m 2,1 km/h (1 Bft) 97,22 %
27.08.2015 08:54 18,2 C 16,7 C 15,6 C 86 % 15 lf 1009,6 hPa 0,0 l/m 0 min 2 min 52 W/m 0,0 km/h (0 Bft) 97,83 %
27.08.2015 08:56 18,2 C 16,7 C 15,6 C 86 % 15 lf 1009,6 hPa 0,0 l/m 0 min 2 min 47 W/m 0,0 km/h (0 Bft) 96,36 %
27.08.2015 08:58 18,1 C 16,7 C 15,0 C 87 % 15 lf 1009,5 hPa 0,0 l/m 0 min 2 min 42 W/m 6,3 km/h (2 Bft) 95,83 %
27.08.2015 09:00 18,1 C 16,7 C 15,0 C 87 % 15 lf 1009,4 hPa 0,0 l/m 0 min 2 min 44 W/m 0,0 km/h (0 Bft) 95,74 %
27.08.2015 09:02 18,1 C 16,7 C 15,0 C 87 % 15 lf 1009,4 hPa 0,0 l/m 0 min 2 min 53 W/m 0,0 km/h (0 Bft) 91,67 %
27.08.2015 09:04 18,1 C 16,7 C 15,6 C 87 % 15 lf 1009,3 hPa 0,0 l/m 0 min 2 min 65 W/m 2,1 km/h (1 Bft) 93,48 %
27.08.2015 09:06 18,1 C 16,7 C 15,6 C 87 % 15 lf 1009,4 hPa 0,0 l/m 0 min 2 min 62 W/m 0,0 km/h (0 Bft) 93,75 %
27.08.2015 09:08 18,1 C 16,7 C 15,6 C 87 % 15 lf 1009,4 hPa 0,0 l/m 0 min 2 min 47 W/m 0,0 km/h (0 Bft) 97,92 %
27.08.2015 09:10 18,0 C 16,7 C 15,6 C 87 % 15 lf 1009,6 hPa 0,0 l/m 0 min 2 min 40 W/m 0,0 km/h (0 Bft) 95,74 %
27.08.2015 09:12 18,0 C 16,7 C 15,6 C 87 % 14 lf 1009,6 hPa 0,0 l/m 0 min 2 min 46 W/m 0,0 km/h (0 Bft) 97,87 %
27.08.2015 09:14 18,0 C 16,7 C 15,6 C 88 % 13 lf 1009,6 hPa 0,0 l/m 0 min 2 min 50 W/m 2,1 km/h (1 Bft) 97,83 %
27.08.2015 09:16 18,0 C 17,2 C 15,6 C 88 % 12 lf 1009,7 hPa 0,0 l/m 0 min 2 min 51 W/m 0,0 km/h (0 Bft) 95,74 %
27.08.2015 09:18 17,9 C 17,2 C 15,6 C 88 % 8 lf 1009,9 hPa 0,0 l/m 0 min 2 min 51 W/m 6,3 km/h (2 Bft) 97,87 %
27.08.2015 09:20 17,9 C 17,2 C 15,6 C 88 % 6 lf 1009,9 hPa 0,0 l/m 0 min 2 min 55 W/m 4,2 km/h (1 Bft) 97,87 %
27.08.2015 09:22 17,9 C 16,7 C 15,6 C 89 % 10 lf 1009,9 hPa 0,0 l/m 0 min 2 min 58 W/m 6,3 km/h (2 Bft) 97,14 %
27.08.2015 09:24 17,9 C 16,7 C 15,6 C 89 % 13 lf 1009,9 hPa 0,0 l/m 0 min 2 min 61 W/m 4,2 km/h (1 Bft) 97,87 %
27.08.2015 09:26 17,9 C 16,7 C 15,6 C 89 % 14 lf 1009,9 hPa 0,2 l/m 0 min 2 min 69 W/m 10,5 km/h (2 Bft) 97,87 %
27.08.2015 09:28 17,9 C 16,7 C 15,6 C 89 % 12 lf 1009,9 hPa 0,0 l/m 0 min 2 min 76 W/m 2,1 km/h (1 Bft) 97,83 %
27.08.2015 09:30 17,8 C 16,7 C 15,6 C 89 % 13 lf 1010,0 hPa 0,0 l/m 0 min 2 min 71 W/m 6,3 km/h (2 Bft) 92,45 %
27.08.2015 09:32 17,9 C 16,7 C 15,6 C 89 % 13 lf 1010,1 hPa 0,0 l/m 0 min 2 min 63 W/m 4,2 km/h (1 Bft) 97,96 %
27.08.2015 09:34 17,8 C 16,7 C 15,6 C 89 % 13 lf 1010,1 hPa 0,0 l/m 0 min 2 min 59 W/m 0,0 km/h (0 Bft) 97,87 %
27.08.2015 09:36 17,8 C 16,7 C 15,6 C 89 % 14 lf 1010,0 hPa 0,0 l/m 0 min 2 min 64 W/m 6,3 km/h (2 Bft) 97,92 %
27.08.2015 09:38 17,8 C 16,7 C 15,0 C 88 % 13 lf 1010,0 hPa 0,0 l/m 0 min 2 min 73 W/m 10,5 km/h (2 Bft) 97,87 %
27.08.2015 09:40 17,8 C 16,7 C 15,6 C 88 % 13 lf 1010,1 hPa 0,0 l/m 0 min 2 min 84 W/m 0,0 km/h (0 Bft) 95,83 %
27.08.2015 09:42 17,8 C 16,7 C 15,6 C 88 % 13 lf 1010,2 hPa 0,0 l/m 0 min 2 min 95 W/m 0,0 km/h (0 Bft) 97,87 %
27.08.2015 09:44 17,8 C 16,7 C 15,6 C 89 % 15 lf 1010,2 hPa 0,0 l/m 0 min 2 min 102 W/m 2,1 km/h (1 Bft) 94,29 %
27.08.2015 09:46 17,8 C 16,7 C 15,6 C 89 % 14 lf 1010,2 hPa 0,0 l/m 0 min 2 min 112 W/m 0,0 km/h (0 Bft) 97,87 %
27.08.2015 09:48 17,8 C 17,2 C 15,6 C 89 % 13 lf 1010,2 hPa 0,0 l/m 0 min 2 min 128 W/m 4,2 km/h (1 Bft) 97,87 %
27.08.2015 09:50 17,9 C 17,2 C 15,6 C 89 % 12 lf 1010,2 hPa 0,0 l/m 0 min 2 min 145 W/m 2,1 km/h (1 Bft) 98,11 %
27.08.2015 09:52 17,9 C 17,2 C 16,1 C 89 % 10 lf 1010,2 hPa 0,0 l/m 0 min 2 min 144 W/m 2,1 km/h (1 Bft) 95,74 %
27.08.2015 09:54 17,9 C 17,8 C 16,1 C 89 % 7 lf 1010,2 hPa 0,0 l/m 0 min 2 min 149 W/m 2,1 km/h (1 Bft) 97,92 %
27.08.2015 09:56 17,9 C 17,8 C 16,1 C 89 % 3 lf 1010,2 hPa 0,0 l/m 0 min 0 min 168 W/m 4,2 km/h (1 Bft) 97,92 %
27.08.2015 09:58 17,9 C 18,3 C 16,1 C 89 % 1 lf 1010,3 hPa 0,0 l/m 0 min 0 min 173 W/m 0,0 km/h (0 Bft) 93,75 %
27.08.2015 10:00 18,0 C 18,3 C 16,1 C 89 % 0 lf 1010,2 hPa 0,0 l/m 0 min 0 min 171 W/m 2,1 km/h (1 Bft) 100,00 %
27.08.2015 10:02 18,0 C 18,9 C 16,1 C 89 % 0 lf 1010,2 hPa 0,0 l/m 0 min 2 min 171 W/m 20,9 km/h (4 Bft) 100,00 %
27.08.2015 10:04 18,0 C 18,9 C 16,1 C 89 % 0 lf 1010,2 hPa 0,0 l/m 0 min 2 min 143 W/m 8,4 km/h (2 Bft) 97,87 %
27.08.2015 10:06 18,1 C 18,9 C 16,1 C 89 % 1 lf 1010,1 hPa 0,0 l/m 0 min 0 min 132 W/m 6,3 km/h (2 Bft) 100,00 %
27.08.2015 10:08 18,1 C 18,9 C 16,1 C 89 % 0 lf 1010,1 hPa 0,0 l/m 0 min 0 min 145 W/m 0,0 km/h (0 Bft) 93,62 %
27.08.2015 10:10 18,1 C 18,9 C 16,1 C 89 % 0 lf 1010,1 hPa 0,0 l/m 0 min 2 min 157 W/m 0,0 km/h (0 Bft) 97,87 %
27.08.2015 10:12 18,1 C 18,9 C 16,7 C 89 % 0 lf 1010,1 hPa 0,0 l/m 0 min 2 min 167 W/m 14,6 km/h (3 Bft) 100,00 %
27.08.2015 10:14 18,2 C 18,9 C 16,7 C 89 % 0 lf 1010,1 hPa 0,0 l/m 0 min 2 min 183 W/m 2,1 km/h (1 Bft) 97,22 %
27.08.2015 10:16 18,2 C 19,4 C 16,7 C 89 % 0 lf 1010,0 hPa 0,0 l/m 0 min 2 min 202 W/m 8,4 km/h (2 Bft) 96,55 %
27.08.2015 10:18 18,2 C 19,4 C 16,7 C 89 % 0 lf 1010,1 hPa 0,0 l/m 0 min 2 min 181 W/m 6,3 km/h (2 Bft) 97,14 %
27.08.2015 10:20 18,3 C 19,4 C 16,7 C 89 % 0 lf 1010,1 hPa 0,0 l/m 0 min 2 min 187 W/m 0,0 km/h (0 Bft) 96,30 %
27.08.2015 10:22 18,4 C 20,0 C 16,7 C 89 % 0 lf 1009,9 hPa 0,0 l/m 0 min 0 min 213 W/m 4,2 km/h (1 Bft) 93,62 %
27.08.2015 10:24 18,4 C 20,0 C 16,7 C 89 % 0 lf 1009,9 hPa 0,0 l/m 0 min 0 min 232 W/m 4,2 km/h (1 Bft) 89,58 %
27.08.2015 10:26 18,4 C 20,0 C 17,2 C 89 % 0 lf 1009,9 hPa 0,0 l/m 0 min 0 min 259 W/m 0,0 km/h (0 Bft) 93,48 %
27.08.2015 10:28 18,5 C 20,6 C 17,2 C 89 % 0 lf 1009,9 hPa 0,0 l/m 0 min 0 min 269 W/m 12,6 km/h (3 Bft) 95,83 %
27.08.2015 10:30 18,6 C 20,6 C 17,2 C 89 % 0 lf 1009,9 hPa 0,0 l/m 0 min 0 min 243 W/m 12,6 km/h (3 Bft) 95,83 %
27.08.2015 10:32 18,6 C 20,6 C 17,2 C 89 % 0 lf 1010,0 hPa 0,0 l/m 0 min 0 min 202 W/m 8,4 km/h (2 Bft) 91,67 %
27.08.2015 10:34 18,7 C 20,6 C 17,2 C 88 % 0 lf 1009,9 hPa 0,0 l/m 0 min 0 min 169 W/m 2,1 km/h (1 Bft) 93,62 %
27.08.2015 10:36 18,7 C 20,6 C 17,2 C 88 % 0 lf 1010,0 hPa 0,0 l/m 0 min 0 min 153 W/m 2,1 km/h (1 Bft) 91,49 %
27.08.2015 10:38 18,7 C 20,0 C 17,2 C 88 % 0 lf 1009,9 hPa 0,0 l/m 0 min 0 min 150 W/m 4,2 km/h (1 Bft) 97,14 %
27.08.2015 10:40 18,8 C 20,0 C 16,7 C 88 % 0 lf 1009,9 hPa 0,0 l/m 0 min 0 min 153 W/m 4,2 km/h (1 Bft) 70,21 %
27.08.2015 10:42 18,8 C 20,0 C 16,7 C 87 % 0 lf 1010,0 hPa 0,0 l/m 0 min 0 min 155 W/m 0,0 km/h (0 Bft) 96,36 %
27.08.2015 10:44 18,8 C 20,0 C 16,7 C 87 % 0 lf 1010,0 hPa 0,0 l/m 0 min 0 min 152 W/m 0,0 km/h (0 Bft) 95,56 %
27.08.2015 10:46 18,8 C 19,4 C 16,7 C 86 % 0 lf 1010,0 hPa 0,0 l/m 0 min 0 min 142 W/m 0,0 km/h (0 Bft) 96,23 %
27.08.2015 10:48 18,8 C 19,4 C 16,7 C 85 % 0 lf 1010,0 hPa 0,0 l/m 0 min 0 min 140 W/m 0,0 km/h (0 Bft) 97,92 %
27.08.2015 10:50 18,8 C 19,4 C 16,7 C 85 % 0 lf 1010,0 hPa 0,0 l/m 0 min 0 min 123 W/m 2,1 km/h (1 Bft) 95,74 %
27.08.2015 10:52 18,8 C 19,4 C 16,7 C 85 % 0 lf 1010,0 hPa 0,0 l/m 0 min 0 min 109 W/m 12,6 km/h (3 Bft) 89,80 %
27.08.2015 10:54 18,8 C 18,9 C 16,7 C 84 % 0 lf 1010,0 hPa 0,0 l/m 0 min 0 min 100 W/m 4,2 km/h (1 Bft) 91,84 %
27.08.2015 10:56 18,8 C 18,9 C 16,7 C 83 % 0 lf 1010,0 hPa 0,0 l/m 0 min 0 min 100 W/m 10,5 km/h (2 Bft) 95,74 %
27.08.2015 10:58 18,8 C 19,4 C 16,7 C 83 % 1 lf 1010,1 hPa 0,0 l/m 0 min 0 min 106 W/m 10,5 km/h (2 Bft) 94,29 %
27.08.2015 11:00 18,8 C 18,9 C 16,7 C 83 % 0 lf 1010,1 hPa 0,0 l/m 0 min 2 min 120 W/m 0,0 km/h (0 Bft) 91,49 %
27.08.2015 11:02 18,8 C 19,4 C 16,7 C 84 % 1 lf 1010,2 hPa 0,0 l/m 0 min 2 min 134 W/m 2,1 km/h (1 Bft) 93,48 %
27.08.2015 11:04 18,8 C 18,9 C 16,7 C 83 % 0 lf 1010,2 hPa 0,0 l/m 0 min 2 min 145 W/m 12,6 km/h (3 Bft) 93,62 %
27.08.2015 11:06 18,8 C 18,9 C 16,7 C 83 % 0 lf 1010,2 hPa 0,0 l/m 0 min 2 min 133 W/m 10,5 km/h (2 Bft) 93,62 %
27.08.2015 11:08 18,8 C 18,9 C 16,7 C 83 % 0 lf 1010,2 hPa 0,0 l/m 0 min 2 min 122 W/m 6,3 km/h (2 Bft) 91,49 %
27.08.2015 11:10 18,8 C 18,9 C 16,7 C 83 % 3 lf 1010,2 hPa 0,0 l/m 0 min 2 min 123 W/m 0,0 km/h (0 Bft) 96,23 %
27.08.2015 11:12 18,8 C 18,9 C 17,2 C 83 % 0 lf 1010,2 hPa 0,0 l/m 0 min 2 min 135 W/m 2,1 km/h (1 Bft) 95,83 %
27.08.2015 11:14 18,8 C 18,9 C 17,2 C 83 % 1 lf 1010,2 hPa 0,0 l/m 0 min 2 min 142 W/m 6,3 km/h (2 Bft) 93,48 %
27.08.2015 11:16 18,8 C 18,9 C 17,2 C 83 % 1 lf 1010,2 hPa 0,0 l/m 0 min 2 min 146 W/m 4,2 km/h (1 Bft) 93,75 %
27.08.2015 11:18 18,8 C 18,9 C 17,2 C 83 % 1 lf 1010,3 hPa 0,0 l/m 0 min 2 min 135 W/m 2,1 km/h (1 Bft) 97,87 %
27.08.2015 11:20 18,8 C 18,9 C 16,7 C 84 % 3 lf 1010,3 hPa 0,0 l/m 0 min 2 min 107 W/m 4,2 km/h (1 Bft) 100,00 %
27.08.2015 11:22 18,8 C 18,9 C 16,7 C 84 % 1 lf 1010,2 hPa 0,0 l/m 0 min 2 min 103 W/m 0,0 km/h (0 Bft) 100,00 %
27.08.2015 11:24 18,8 C 18,9 C 16,7 C 83 % 1 lf 1010,3 hPa 0,0 l/m 0 min 2 min 114 W/m 8,4 km/h (2 Bft) 100,00 %
27.08.2015 11:26 18,8 C 18,9 C 17,2 C 84 % 1 lf 1010,3 hPa 0,0 l/m 0 min 0 min 126 W/m 8,4 km/h (2 Bft) 100,00 %
27.08.2015 11:28 18,8 C 18,9 C 17,2 C 84 % 0 lf 1010,3 hPa 0,0 l/m 0 min 0 min 133 W/m 10,5 km/h (2 Bft) 97,14 %
27.08.2015 11:30 18,7 C 18,9 C 17,2 C 84 % 1 lf 1010,3 hPa 0,0 l/m 0 min 2 min 126 W/m 6,3 km/h (2 Bft) 100,00 %
27.08.2015 11:32 18,7 C 18,3 C 17,2 C 84 % 3 lf 1010,4 hPa 0,0 l/m 0 min 2 min 116 W/m 10,5 km/h (2 Bft) 97,87 %
27.08.2015 11:34 18,8 C 18,3 C 17,2 C 84 % 1 lf 1010,4 hPa 0,0 l/m 0 min 2 min 107 W/m 0,0 km/h (0 Bft) 100,00 %
27.08.2015 11:36 18,7 C 18,3 C 17,2 C 85 % 1 lf 1010,4 hPa 0,0 l/m 0 min 2 min 102 W/m 6,3 km/h (2 Bft) 100,00 %
27.08.2015 11:38 18,7 C 18,3 C 16,7 C 85 % 0 lf 1010,4 hPa 0,0 l/m 0 min 2 min 104 W/m 6,3 km/h (2 Bft) 100,00 %
27.08.2015 11:40 18,7 C 18,3 C 16,7 C 85 % 0 lf 1010,5 hPa 0,0 l/m 0 min 0 min 107 W/m 10,5 km/h (2 Bft) 95,74 %
27.08.2015 11:42 18,7 C 18,3 C 16,7 C 84 % 2 lf 1010,3 hPa 0,0 l/m 0 min 2 min 112 W/m 2,1 km/h (1 Bft) 98,11 %
27.08.2015 11:44 18,7 C 18,9 C 16,7 C 84 % 4 lf 1010,4 hPa 0,0 l/m 0 min 2 min 119 W/m 0,0 km/h (0 Bft) 97,92 %
27.08.2015 11:46 18,7 C 18,3 C 16,7 C 85 % 3 lf 1010,5 hPa 0,0 l/m 0 min 2 min 113 W/m 4,2 km/h (1 Bft) 100,00 %
27.08.2015 11:48 18,7 C 18,3 C 16,7 C 85 % 9 lf 1010,6 hPa 0,0 l/m 0 min 2 min 111 W/m 0,0 km/h (0 Bft) 95,65 %
27.08.2015 11:50 18,7 C 18,3 C 16,7 C 85 % 7 lf 1010,5 hPa 0,0 l/m 0 min 2 min 121 W/m 2,1 km/h (1 Bft) 95,74 %
27.08.2015 11:52 18,6 C 18,3 C 16,7 C 85 % 10 lf 1010,6 hPa 0,0 l/m 0 min 2 min 129 W/m 0,0 km/h (0 Bft) 100,00 %
27.08.2015 11:54 18,6 C 18,3 C 16,1 C 85 % 5 lf 1010,6 hPa 0,0 l/m 0 min 2 min 120 W/m 2,1 km/h (1 Bft) 100,00 %
27.08.2015 11:56 18,6 C 17,8 C 16,1 C 85 % 9 lf 1010,6 hPa 0,0 l/m 0 min 2 min 116 W/m 2,1 km/h (1 Bft) 100,00 %
27.08.2015 11:58 18,6 C 17,8 C 16,1 C 86 % 12 lf 1010,7 hPa 0,0 l/m 0 min 2 min 118 W/m 0,0 km/h (0 Bft) 100,00 %
27.08.2015 12:00 18,6 C 17,8 C 16,1 C 86 % 12 lf 1010,7 hPa 0,0 l/m 0 min 2 min 124 W/m 0,0 km/h (0 Bft) 95,74 %
27.08.2015 12:02 18,5 C 17,8 C 16,1 C 86 % 10 lf 1010,6 hPa 0,0 l/m 0 min 2 min 161 W/m 0,0 km/h (0 Bft) 97,87 %
27.08.2015 12:05 18,5 C 18,3 C 16,1 C 86 % 10 lf 1010,6 hPa 0,0 l/m 0 min 2 min 209 W/m 4,2 km/h (1 Bft) 97,87 %
27.08.2015 12:10 18,5 C 17,8 C 16,1 C 87 % 14 lf 1010,7 hPa 0,0 l/m 0 min 2 min 190 W/m 10,5 km/h (2 Bft) 96,79 %
27.08.2015 12:12 18,6 C 17,8 C 16,1 C 87 % 15 lf 1010,7 hPa 0,0 l/m 0 min 2 min 150 W/m 0,0 km/h (0 Bft) 95,83 %
27.08.2015 12:14 18,5 C 17,8 C 16,1 C 87 % 15 lf 1010,6 hPa 0,0 l/m 0 min 2 min 148 W/m 2,1 km/h (1 Bft) 97,87 %
27.08.2015 12:16 18,5 C 17,8 C 16,1 C 87 % 15 lf 1010,7 hPa 0,0 l/m 0 min 2 min 131 W/m 0,0 km/h (0 Bft) 100,00 %
27.08.2015 12:18 18,5 C 17,2 C 15,6 C 87 % 15 lf 1010,7 hPa 0,0 l/m 0 min 2 min 99 W/m 4,2 km/h (1 Bft) 97,87 %
27.08.2015 12:20 18,4 C 17,2 C 16,1 C 87 % 15 lf 1010,8 hPa 0,0 l/m 0 min 2 min 69 W/m 2,1 km/h (1 Bft) 95,74 %
27.08.2015 12:22 18,4 C 17,2 C 15,6 C 87 % 15 lf 1010,7 hPa 0,2 l/m 0 min 2 min 57 W/m 10,5 km/h (2 Bft) 91,49 %
27.08.2015 12:24 18,3 C 16,7 C 15,6 C 87 % 15 lf 1010,7 hPa 0,0 l/m 0 min 2 min 50 W/m 6,3 km/h (2 Bft) 98,08 %
27.08.2015 12:26 18,3 C 16,7 C 15,6 C 87 % 15 lf 1010,6 hPa 0,0 l/m 0 min 2 min 52 W/m 10,5 km/h (2 Bft) 97,92 %
27.08.2015 12:28 18,2 C 16,7 C 15,6 C 87 % 15 lf 1010,7 hPa 0,0 l/m 0 min 0 min 59 W/m 0,0 km/h (0 Bft) 97,87 %
27.08.2015 12:30 18,2 C 16,7 C 15,6 C 88 % 15 lf 1010,8 hPa 0,0 l/m 0 min 2 min 60 W/m 0,0 km/h (0 Bft) 95,92 %
27.08.2015 12:32 18,1 C 16,7 C 15,6 C 88 % 15 lf 1010,8 hPa 0,0 l/m 0 min 2 min 65 W/m 0,0 km/h (0 Bft) 95,83 %
27.08.2015 12:34 18,1 C 16,7 C 15,6 C 88 % 15 lf 1010,8 hPa 0,0 l/m 0 min 2 min 69 W/m 2,1 km/h (1 Bft) 97,87 %
27.08.2015 12:36 18,1 C 16,7 C 15,6 C 88 % 15 lf 1010,8 hPa 0,0 l/m 0 min 2 min 76 W/m 0,0 km/h (0 Bft) 95,83 %
27.08.2015 12:38 18,1 C 16,7 C 15,6 C 88 % 15 lf 1010,8 hPa 0,2 l/m 0 min 2 min 74 W/m 0,0 km/h (0 Bft) 95,74 %
27.08.2015 12:40 18,0 C 16,7 C 15,6 C 88 % 15 lf 1010,8 hPa 0,0 l/m 0 min 2 min 74 W/m 0,0 km/h (0 Bft) 94,29 %
27.08.2015 12:42 18,0 C 16,7 C 15,6 C 88 % 15 lf 1010,8 hPa 0,0 l/m 0 min 2 min 82 W/m 0,0 km/h (0 Bft) 93,62 %
27.08.2015 12:44 17,9 C 16,7 C 15,6 C 89 % 15 lf 1010,7 hPa 0,0 l/m 0 min 2 min 95 W/m 0,0 km/h (0 Bft) 95,74 %
27.08.2015 12:46 17,9 C 16,7 C 15,6 C 89 % 15 lf 1010,7 hPa 0,2 l/m 0 min 2 min 88 W/m 0,0 km/h (0 Bft) 93,62 %
27.08.2015 12:48 17,9 C 16,7 C 15,6 C 89 % 15 lf 1010,8 hPa 0,0 l/m 0 min 2 min 77 W/m 2,1 km/h (1 Bft) 94,23 %
27.08.2015 12:50 17,9 C 16,7 C 15,0 C 89 % 15 lf 1010,8 hPa 0,0 l/m 0 min 2 min 82 W/m 0,0 km/h (0 Bft) 95,83 %
27.08.2015 12:52 17,8 C 16,7 C 15,6 C 89 % 15 lf 1010,8 hPa 0,2 l/m 0 min 2 min 89 W/m 0,0 km/h (0 Bft) 95,92 %
27.08.2015 12:54 17,8 C 16,7 C 15,6 C 89 % 15 lf 1010,8 hPa 0,0 l/m 0 min 2 min 96 W/m 0,0 km/h (0 Bft) 95,92 %
27.08.2015 12:56 17,8 C 16,1 C 15,6 C 89 % 15 lf 1010,8 hPa 0,0 l/m 0 min 2 min 98 W/m 2,1 km/h (1 Bft) 95,74 %
27.08.2015 12:58 17,7 C 16,1 C 15,6 C 90 % 15 lf 1010,7 hPa 0,0 l/m 0 min 2 min 101 W/m 0,0 km/h (0 Bft) 91,67 %
27.08.2015 13:00 17,7 C 16,1 C 15,6 C 90 % 15 lf 1010,7 hPa 0,2 l/m 0 min 2 min 100 W/m 0,0 km/h (0 Bft) 97,83 %
27.08.2015 13:02 17,7 C 16,7 C 15,6 C 90 % 15 lf 1010,7 hPa 0,0 l/m 0 min 2 min 93 W/m 0,0 km/h (0 Bft) 95,74 %
27.08.2015 13:04 17,6 C 16,1 C 15,6 C 90 % 15 lf 1010,7 hPa 0,2 l/m 0 min 2 min 92 W/m 6,3 km/h (2 Bft) 97,87 %
27.08.2015 13:06 17,6 C 16,1 C 15,6 C 90 % 15 lf 1010,7 hPa 0,0 l/m 0 min 2 min 100 W/m 0,0 km/h (0 Bft) 96,23 %
27.08.2015 13:08 17,6 C 16,1 C 15,6 C 90 % 15 lf 1010,7 hPa 0,0 l/m 0 min 2 min 98 W/m 4,2 km/h (1 Bft) 100,00 %
27.08.2015 13:10 17,5 C 16,1 C 15,0 C 90 % 15 lf 1010,7 hPa 0,0 l/m 0 min 2 min 97 W/m 6,3 km/h (2 Bft) 100,00 %
27.08.2015 13:12 17,4 C 16,1 C 15,0 C 90 % 15 lf 1010,7 hPa 0,2 l/m 0 min 2 min 95 W/m 6,3 km/h (2 Bft) 97,87 %
27.08.2015 13:14 17,3 C 15,6 C 15,0 C 90 % 15 lf 1010,7 hPa 0,0 l/m 0 min 2 min 94 W/m 12,6 km/h (3 Bft) 93,75 %
27.08.2015 13:16 17,2 C 15,6 C 15,0 C 90 % 15 lf 1010,8 hPa 0,0 l/m 0 min 2 min 97 W/m 8,4 km/h (2 Bft) 97,92 %
27.08.2015 13:18 17,1 C 15,6 C 15,0 C 90 % 15 lf 1010,8 hPa 0,2 l/m 0 min 2 min 98 W/m 0,0 km/h (0 Bft) 97,87 %
27.08.2015 13:20 17,1 C 15,6 C 15,0 C 90 % 15 lf 1010,8 hPa 0,0 l/m 0 min 2 min 99 W/m 6,3 km/h (2 Bft) 97,92 %
27.08.2015 13:22 17,1 C 15,6 C 15,0 C 90 % 15 lf 1010,8 hPa 0,0 l/m 0 min 2 min 100 W/m 2,1 km/h (1 Bft) 97,83 %
27.08.2015 13:24 17,0 C 15,6 C 15,0 C 90 % 15 lf 1010,8 hPa 0,0 l/m 0 min 2 min 110 W/m 0,0 km/h (0 Bft) 97,92 %
27.08.2015 13:26 17,0 C 15,6 C 15,0 C 91 % 15 lf 1010,8 hPa 0,0 l/m 0 min 2 min 105 W/m 6,3 km/h (2 Bft) 93,75 %
27.08.2015 13:28 16,9 C 15,6 C 14,4 C 91 % 15 lf 1010,8 hPa 0,0 l/m 0 min 2 min 100 W/m 10,5 km/h (2 Bft) 97,87 %
27.08.2015 13:30 16,8 C 15,0 C 14,4 C 90 % 15 lf 1010,8 hPa 0,0 l/m 0 min 2 min 110 W/m 12,6 km/h (3 Bft) 95,65 %
27.08.2015 13:32 16,7 C 15,0 C 14,4 C 90 % 15 lf 1010,7 hPa 0,2 l/m 0 min 2 min 116 W/m 12,6 km/h (3 Bft) 97,87 %
27.08.2015 13:34 16,6 C 15,0 C 14,4 C 90 % 15 lf 1010,8 hPa 0,0 l/m 0 min 2 min 115 W/m 2,1 km/h (1 Bft) 100,00 %
27.08.2015 13:36 16,5 C 15,0 C 14,4 C 90 % 15 lf 1010,8 hPa 0,0 l/m 0 min 2 min 114 W/m 0,0 km/h (0 Bft) 95,74 %
27.08.2015 13:38 16,5 C 15,0 C 14,4 C 90 % 15 lf 1010,8 hPa 0,0 l/m 0 min 2 min 114 W/m 0,0 km/h (0 Bft) 97,87 %
27.08.2015 13:40 16,4 C 15,0 C 14,4 C 90 % 15 lf 1010,8 hPa 0,2 l/m 0 min 2 min 118 W/m 6,3 km/h (2 Bft) 95,74 %
27.08.2015 13:42 16,4 C 15,6 C 14,4 C 90 % 15 lf 1010,9 hPa 0,0 l/m 0 min 2 min 125 W/m 0,0 km/h (0 Bft) 98,11 %
27.08.2015 13:44 16,4 C 15,6 C 14,4 C 91 % 15 lf 1010,9 hPa 0,0 l/m 0 min 2 min 129 W/m 0,0 km/h (0 Bft) 97,87 %
27.08.2015 13:46 16,3 C 15,0 C 14,4 C 91 % 15 lf 1010,8 hPa 0,0 l/m 0 min 2 min 135 W/m 8,4 km/h (2 Bft) 93,62 %
27.08.2015 13:48 16,3 C 15,0 C 14,4 C 91 % 15 lf 1010,8 hPa 0,0 l/m 0 min 2 min 143 W/m 0,0 km/h (0 Bft) 95,83 %
27.08.2015 13:50 16,3 C 15,0 C 14,4 C 91 % 15 lf 1010,8 hPa 0,0 l/m 0 min 2 min 150 W/m 6,3 km/h (2 Bft) 97,92 %
27.08.2015 13:52 16,2 C 15,0 C 13,9 C 90 % 15 lf 1010,8 hPa 0,0 l/m 0 min 2 min 143 W/m 10,5 km/h (2 Bft) 97,87 %
27.08.2015 13:54 16,1 C 15,0 C 13,9 C 90 % 15 lf 1010,9 hPa 0,0 l/m 0 min 2 min 137 W/m 2,1 km/h (1 Bft) 95,74 %
27.08.2015 13:56 16,1 C 15,0 C 13,9 C 90 % 15 lf 1010,9 hPa 0,0 l/m 0 min 2 min 134 W/m 0,0 km/h (0 Bft) 97,83 %
27.08.2015 13:58 16,0 C 15,0 C 13,9 C 90 % 15 lf 1010,8 hPa 0,0 l/m 0 min 2 min 132 W/m 8,4 km/h (2 Bft) 97,87 %
27.08.2015 14:00 16,0 C 15,0 C 13,9 C 90 % 15 lf 1010,8 hPa 0,0 l/m 0 min 2 min 135 W/m 12,6 km/h (3 Bft) 95,74 %
27.08.2015 14:02 15,9 C 15,0 C 13,9 C 90 % 15 lf 1010,8 hPa 0,0 l/m 0 min 2 min 131 W/m 10,5 km/h (2 Bft) 97,92 %
27.08.2015 14:04 15,9 C 15,0 C 13,9 C 90 % 15 lf 1010,8 hPa 0,2 l/m 0 min 2 min 131 W/m 0,0 km/h (0 Bft) 97,87 %
27.08.2015 14:06 15,9 C 14,4 C 13,9 C 90 % 15 lf 1010,8 hPa 0,0 l/m 0 min 2 min 135 W/m 2,1 km/h (1 Bft) 93,75 %
27.08.2015 14:08 15,9 C 15,0 C 13,9 C 90 % 15 lf 1010,8 hPa 0,0 l/m 0 min 2 min 132 W/m 0,0 km/h (0 Bft) 97,22 %
27.08.2015 14:10 15,9 C 15,0 C 13,9 C 90 % 15 lf 1010,8 hPa 0,0 l/m 0 min 2 min 132 W/m 0,0 km/h (0 Bft) 93,48 %
27.08.2015 14:12 15,8 C 15,0 C 13,9 C 90 % 15 lf 1010,8 hPa 0,0 l/m 0 min 2 min 130 W/m 0,0 km/h (0 Bft) 97,87 %
27.08.2015 14:14 15,8 C 14,4 C 13,9 C 90 % 15 lf 1010,9 hPa 0,0 l/m 0 min 2 min 108 W/m 18,8 km/h (3 Bft) 97,87 %
27.08.2015 14:16 15,7 C 14,4 C 13,3 C 90 % 15 lf 1010,8 hPa 0,0 l/m 0 min 2 min 103 W/m 6,3 km/h (2 Bft) 96,30 %
27.08.2015 14:18 15,7 C 14,4 C 13,9 C 90 % 15 lf 1010,8 hPa 0,2 l/m 0 min 2 min 98 W/m 6,3 km/h (2 Bft) 91,84 %
27.08.2015 14:20 15,7 C 14,4 C 13,9 C 90 % 15 lf 1010,7 hPa 0,0 l/m 0 min 2 min 104 W/m 0,0 km/h (0 Bft) 95,83 %
27.08.2015 14:22 15,7 C 14,4 C 13,9 C 91 % 15 lf 1010,7 hPa 0,0 l/m 0 min 2 min 108 W/m 10,5 km/h (2 Bft) 97,92 %
27.08.2015 14:24 15,6 C 14,4 C 13,9 C 91 % 15 lf 1010,8 hPa 0,0 l/m 0 min 2 min 119 W/m 0,0 km/h (0 Bft) 97,87 %
27.08.2015 14:26 15,6 C 14,4 C 13,9 C 91 % 15 lf 1010,8 hPa 0,0 l/m 0 min 2 min 126 W/m 0,0 km/h (0 Bft) 100,00 %
27.08.2015 14:28 15,6 C 15,0 C 13,9 C 91 % 15 lf 1010,8 hPa 0,0 l/m 0 min 2 min 134 W/m 2,1 km/h (1 Bft) 93,62 %
27.08.2015 14:30 15,6 C 15,0 C 13,9 C 91 % 15 lf 1010,9 hPa 0,0 l/m 0 min 2 min 147 W/m 6,3 km/h (2 Bft) 96,23 %
27.08.2015 14:32 15,6 C 15,0 C 13,9 C 91 % 15 lf 1010,8 hPa 0,2 l/m 0 min 2 min 148 W/m 0,0 km/h (0 Bft) 95,74 %
27.08.2015 14:34 15,6 C 15,0 C 13,9 C 91 % 15 lf 1010,8 hPa 0,0 l/m 0 min 2 min 146 W/m 2,1 km/h (1 Bft) 95,83 %
27.08.2015 14:36 15,6 C 15,0 C 13,9 C 91 % 15 lf 1010,9 hPa 0,0 l/m 0 min 2 min 131 W/m 0,0 km/h (0 Bft) 95,74 %
27.08.2015 14:38 15,6 C 15,0 C 13,9 C 92 % 15 lf 1010,8 hPa 0,0 l/m 0 min 2 min 128 W/m 0,0 km/h (0 Bft) 93,88 %
27.08.2015 14:40 15,6 C 15,0 C 13,9 C 92 % 15 lf 1010,9 hPa 0,2 l/m 0 min 2 min 134 W/m 0,0 km/h (0 Bft) 89,58 %
27.08.2015 14:42 15,6 C 15,0 C 13,9 C 92 % 15 lf 1010,9 hPa 0,0 l/m 0 min 2 min 134 W/m 6,3 km/h (2 Bft) 95,74 %
27.08.2015 14:44 15,6 C 15,0 C 13,9 C 92 % 15 lf 1010,9 hPa 0,0 l/m 0 min 2 min 135 W/m 4,2 km/h (1 Bft) 95,74 %
27.08.2015 14:46 15,6 C 14,4 C 13,9 C 92 % 15 lf 1010,9 hPa 0,0 l/m 0 min 2 min 140 W/m 0,0 km/h (0 Bft) 95,74 %
27.08.2015 14:48 15,5 C 14,4 C 13,3 C 91 % 15 lf 1010,9 hPa 0,0 l/m 0 min 2 min 139 W/m 0,0 km/h (0 Bft) 94,29 %
27.08.2015 14:50 15,5 C 14,4 C 13,9 C 91 % 15 lf 1010,9 hPa 0,0 l/m 0 min 2 min 152 W/m 0,0 km/h (0 Bft) 93,62 %
27.08.2015 14:52 15,4 C 14,4 C 13,9 C 91 % 15 lf 1010,9 hPa 0,0 l/m 0 min 2 min 149 W/m 4,2 km/h (1 Bft) 91,49 %
27.08.2015 14:54 15,4 C 14,4 C 13,9 C 91 % 15 lf 1011,0 hPa 0,0 l/m 0 min 2 min 149 W/m 6,3 km/h (2 Bft) 95,74 %
27.08.2015 14:56 15,3 C 14,4 C 13,3 C 91 % 15 lf 1011,0 hPa 0,2 l/m 0 min 2 min 150 W/m 10,5 km/h (2 Bft) 93,48 %
27.08.2015 14:58 15,3 C 13,9 C 13,3 C 91 % 15 lf 1011,0 hPa 0,0 l/m 0 min 2 min 152 W/m 8,4 km/h (2 Bft) 93,62 %
27.08.2015 15:00 15,2 C 13,9 C 13,3 C 91 % 15 lf 1011,0 hPa 0,0 l/m 0 min 2 min 129 W/m 8,4 km/h (2 Bft) 98,11 %
27.08.2015 15:02 15,1 C 13,9 C 13,3 C 91 % 15 lf 1011,0 hPa 0,0 l/m 0 min 2 min 131 W/m 0,0 km/h (0 Bft) 93,88 %
27.08.2015 15:04 15,1 C 14,4 C 13,3 C 91 % 15 lf 1011,0 hPa 0,0 l/m 0 min 2 min 149 W/m 0,0 km/h (0 Bft) 95,83 %
27.08.2015 15:06 15,1 C 14,4 C 13,3 C 91 % 15 lf 1011,0 hPa 0,0 l/m 0 min 2 min 123 W/m 6,3 km/h (2 Bft) 95,74 %
27.08.2015 15:08 15,1 C 14,4 C 13,3 C 91 % 15 lf 1011,0 hPa 0,0 l/m 0 min 2 min 105 W/m 0,0 km/h (0 Bft) 95,83 %
27.08.2015 15:10 15,1 C 13,9 C 13,3 C 91 % 15 lf 1011,0 hPa 0,0 l/m 0 min 2 min 94 W/m 2,1 km/h (1 Bft) 97,92 %
27.08.2015 15:12 15,1 C 13,9 C 13,3 C 90 % 15 lf 1011,0 hPa 0,2 l/m 0 min 2 min 86 W/m 0,0 km/h (0 Bft) 93,62 %
27.08.2015 15:14 15,1 C 13,9 C 12,8 C 91 % 15 lf 1010,9 hPa 0,0 l/m 0 min 2 min 81 W/m 2,1 km/h (1 Bft) 93,62 %
27.08.2015 15:16 15,0 C 13,9 C 12,8 C 91 % 15 lf 1011,0 hPa 0,0 l/m 0 min 2 min 75 W/m 2,1 km/h (1 Bft) 95,65 %
27.08.2015 15:18 15,0 C 13,9 C 12,8 C 90 % 15 lf 1011,0 hPa 0,0 l/m 0 min 2 min 78 W/m 0,0 km/h (0 Bft) 97,22 %
27.08.2015 15:20 14,9 C 13,9 C 12,8 C 91 % 15 lf 1011,0 hPa 0,0 l/m 0 min 2 min 84 W/m 0,0 km/h (0 Bft) 95,65 %
27.08.2015 15:22 14,9 C 13,9 C 12,8 C 91 % 15 lf 1011,0 hPa 0,2 l/m 0 min 2 min 86 W/m 0,0 km/h (0 Bft) 94,34 %
27.08.2015 15:24 14,9 C 13,9 C 12,8 C 91 % 15 lf 1010,9 hPa 0,0 l/m 0 min 2 min 89 W/m 2,1 km/h (1 Bft) 95,83 %
27.08.2015 15:26 14,9 C 13,9 C 12,8 C 91 % 15 lf 1010,9 hPa 0,0 l/m 0 min 2 min 91 W/m 10,5 km/h (2 Bft) 95,92 %
27.08.2015 15:28 14,9 C 13,9 C 13,3 C 91 % 15 lf 1010,9 hPa 0,0 l/m 0 min 2 min 91 W/m 6,3 km/h (2 Bft) 95,83 %
27.08.2015 15:30 14,8 C 13,9 C 13,3 C 91 % 15 lf 1010,9 hPa 0,2 l/m 0 min 2 min 88 W/m 0,0 km/h (0 Bft) 89,36 %
27.08.2015 15:32 14,8 C 13,9 C 12,8 C 91 % 15 lf 1011,0 hPa 0,0 l/m 0 min 2 min 85 W/m 2,1 km/h (1 Bft) 97,92 %
27.08.2015 15:34 14,8 C 13,9 C 13,3 C 91 % 15 lf 1011,0 hPa 0,0 l/m 0 min 2 min 84 W/m 0,0 km/h (0 Bft) 100,00 %
27.08.2015 15:36 14,8 C 13,9 C 13,3 C 91 % 15 lf 1011,0 hPa 0,0 l/m 0 min 2 min 81 W/m 6,3 km/h (2 Bft) 97,30 %
27.08.2015 15:38 14,8 C 13,9 C 13,3 C 91 % 15 lf 1011,1 hPa 0,2 l/m 0 min 2 min 71 W/m 6,3 km/h (2 Bft) 97,87 %
27.08.2015 15:40 14,8 C 13,9 C 13,3 C 91 % 15 lf 1011,1 hPa 0,0 l/m 0 min 2 min 69 W/m 0,0 km/h (0 Bft) 95,74 %
27.08.2015 15:42 14,8 C 13,9 C 13,3 C 91 % 15 lf 1011,0 hPa 0,0 l/m 0 min 2 min 74 W/m 0,0 km/h (0 Bft) 98,08 %
27.08.2015 15:44 14,8 C 13,9 C 13,3 C 91 % 15 lf 1011,0 hPa 0,0 l/m 0 min 2 min 74 W/m 0,0 km/h (0 Bft) 97,92 %
27.08.2015 15:46 14,7 C 13,9 C 13,3 C 91 % 15 lf 1011,0 hPa 0,2 l/m 0 min 2 min 72 W/m 0,0 km/h (0 Bft) 95,74 %
27.08.2015 15:48 14,7 C 13,9 C 13,3 C 92 % 15 lf 1011,1 hPa 0,0 l/m 0 min 2 min 69 W/m 0,0 km/h (0 Bft) 93,75 %
27.08.2015 15:50 14,7 C 13,9 C 13,3 C 92 % 15 lf 1011,1 hPa 0,0 l/m 0 min 2 min 75 W/m 0,0 km/h (0 Bft) 97,92 %
27.08.2015 15:52 14,7 C 13,9 C 12,8 C 92 % 15 lf 1011,0 hPa 0,0 l/m 0 min 2 min 82 W/m 0,0 km/h (0 Bft) 100,00 %
27.08.2015 15:54 14,7 C 13,9 C 12,8 C 92 % 15 lf 1011,0 hPa 0,2 l/m 0 min 2 min 86 W/m 8,4 km/h (2 Bft) 100,00 %
27.08.2015 15:56 14,7 C 13,9 C 13,3 C 92 % 15 lf 1011,0 hPa 0,0 l/m 0 min 2 min 85 W/m 0,0 km/h (0 Bft) 94,29 %
27.08.2015 15:58 14,7 C 13,9 C 13,3 C 92 % 15 lf 1011,0 hPa 0,2 l/m 0 min 2 min 84 W/m 10,5 km/h (2 Bft) 95,83 %
27.08.2015 16:00 14,7 C 13,9 C 12,8 C 92 % 15 lf 1011,0 hPa 0,0 l/m 0 min 2 min 86 W/m 0,0 km/h (0 Bft) 100,00 %
27.08.2015 16:02 14,7 C 13,9 C 13,3 C 92 % 15 lf 1011,0 hPa 0,0 l/m 0 min 2 min 84 W/m 0,0 km/h (0 Bft) 100,00 %
27.08.2015 16:04 14,7 C 13,9 C 12,8 C 92 % 15 lf 1010,9 hPa 0,0 l/m 0 min 2 min 89 W/m 0,0 km/h (0 Bft) 97,87 %
27.08.2015 16:06 14,6 C 13,9 C 13,3 C 92 % 15 lf 1010,9 hPa 0,0 l/m 0 min 2 min 96 W/m 0,0 km/h (0 Bft) 95,65 %
27.08.2015 16:08 14,6 C 13,9 C 13,3 C 92 % 15 lf 1010,8 hPa 0,0 l/m 0 min 2 min 96 W/m 0,0 km/h (0 Bft) 97,87 %
27.08.2015 16:10 14,6 C 13,9 C 13,3 C 92 % 15 lf 1010,8 hPa 0,2 l/m 0 min 2 min 94 W/m 0,0 km/h (0 Bft) 95,74 %
27.08.2015 16:12 14,6 C 13,9 C 13,3 C 93 % 15 lf 1010,8 hPa 0,0 l/m 0 min 2 min 85 W/m 0,0 km/h (0 Bft) 97,87 %
27.08.2015 16:14 14,6 C 13,9 C 13,3 C 93 % 15 lf 1010,8 hPa 0,0 l/m 0 min 2 min 79 W/m 0,0 km/h (0 Bft) 100,00 %
27.08.2015 16:16 14,6 C 13,9 C 13,3 C 93 % 15 lf 1010,8 hPa 0,0 l/m 0 min 2 min 76 W/m 0,0 km/h (0 Bft) 95,74 %
27.08.2015 16:18 14,6 C 13,9 C 13,3 C 93 % 15 lf 1010,9 hPa 0,0 l/m 0 min 2 min 72 W/m 0,0 km/h (0 Bft) 97,83 %
27.08.2015 16:20 14,6 C 13,9 C 13,3 C 93 % 15 lf 1010,8 hPa 0,2 l/m 0 min 2 min 76 W/m 0,0 km/h (0 Bft) 96,23 %
27.08.2015 16:22 14,6 C 13,9 C 13,3 C 93 % 15 lf 1010,7 hPa 0,0 l/m 0 min 2 min 81 W/m 0,0 km/h (0 Bft) 95,83 %
27.08.2015 16:24 14,6 C 13,9 C 13,3 C 93 % 15 lf 1010,8 hPa 0,0 l/m 0 min 2 min 77 W/m 0,0 km/h (0 Bft) 93,75 %
27.08.2015 16:26 14,6 C 13,9 C 13,3 C 93 % 15 lf 1010,8 hPa 0,0 l/m 0 min 2 min 75 W/m 0,0 km/h (0 Bft) 95,83 %
27.08.2015 16:28 14,6 C 13,9 C 13,3 C 93 % 15 lf 1010,8 hPa 0,0 l/m 0 min 2 min 75 W/m 0,0 km/h (0 Bft) 86,84 %
27.08.2015 16:30 14,6 C 13,9 C 13,3 C 93 % 15 lf 1010,8 hPa 0,0 l/m 0 min 2 min 76 W/m 0,0 km/h (0 Bft) 95,65 %
27.08.2015 16:32 14,6 C 13,9 C 13,3 C 93 % 15 lf 1010,8 hPa 0,2 l/m 0 min 2 min 77 W/m 0,0 km/h (0 Bft) 95,74 %
27.08.2015 16:34 14,6 C 13,9 C 13,3 C 93 % 15 lf 1010,9 hPa 0,0 l/m 0 min 2 min 80 W/m 0,0 km/h (0 Bft) 95,74 %
27.08.2015 16:36 14,6 C 13,9 C 13,3 C 93 % 15 lf 1010,9 hPa 0,0 l/m 0 min 2 min 81 W/m 0,0 km/h (0 Bft) 95,74 %
27.08.2015 16:38 14,6 C 14,4 C 13,3 C 93 % 15 lf 1010,9 hPa 0,0 l/m 0 min 2 min 81 W/m 0,0 km/h (0 Bft) 95,74 %
27.08.2015 16:40 14,6 C 14,4 C 13,3 C 93 % 15 lf 1010,9 hPa 0,0 l/m 0 min 2 min 82 W/m 0,0 km/h (0 Bft) 95,65 %
27.08.2015 16:42 14,6 C 13,9 C 13,3 C 93 % 15 lf 1010,9 hPa 0,0 l/m 0 min 2 min 77 W/m 0,0 km/h (0 Bft) 92,45 %
27.08.2015 16:44 14,6 C 13,9 C 13,3 C 94 % 15 lf 1010,9 hPa 0,2 l/m 0 min 2 min 73 W/m 0,0 km/h (0 Bft) 95,83 %
27.08.2015 16:46 14,6 C 13,9 C 13,3 C 94 % 15 lf 1010,9 hPa 0,0 l/m 0 min 2 min 71 W/m 0,0 km/h (0 Bft) 93,75 %
27.08.2015 16:48 14,6 C 13,9 C 13,3 C 94 % 15 lf 1010,9 hPa 0,0 l/m 0 min 2 min 72 W/m 0,0 km/h (0 Bft) 93,62 %
27.08.2015 16:50 14,6 C 13,9 C 13,3 C 94 % 15 lf 1010,9 hPa 0,0 l/m 0 min 2 min 68 W/m 0,0 km/h (0 Bft) 93,62 %
27.08.2015 16:52 14,6 C 13,9 C 13,3 C 94 % 15 lf 1010,9 hPa 0,0 l/m 0 min 2 min 68 W/m 0,0 km/h (0 Bft) 97,83 %
27.08.2015 16:54 14,6 C 13,9 C 13,3 C 94 % 15 lf 1011,0 hPa 0,0 l/m 0 min 2 min 63 W/m 0,0 km/h (0 Bft) 95,74 %
27.08.2015 16:56 14,6 C 13,9 C 12,8 C 94 % 15 lf 1010,9 hPa 0,2 l/m 0 min 2 min 61 W/m 2,1 km/h (1 Bft) 97,92 %
27.08.2015 16:58 14,6 C 13,9 C 12,8 C 94 % 15 lf 1010,9 hPa 0,0 l/m 0 min 2 min 62 W/m 0,0 km/h (0 Bft) 97,92 %
27.08.2015 17:00 14,6 C 13,9 C 13,3 C 94 % 15 lf 1010,9 hPa 0,0 l/m 0 min 2 min 66 W/m 0,0 km/h (0 Bft) 100,00 %
27.08.2015 17:02 14,5 C 13,9 C 12,8 C 94 % 15 lf 1010,8 hPa 0,0 l/m 0 min 2 min 69 W/m 0,0 km/h (0 Bft) 100,00 %
27.08.2015 17:04 14,5 C 13,9 C 12,8 C 94 % 15 lf 1010,9 hPa 0,0 l/m 0 min 2 min 67 W/m 0,0 km/h (0 Bft) 100,00 %
27.08.2015 17:06 14,4 C 13,9 C 13,3 C 94 % 15 lf 1010,9 hPa 0,2 l/m 0 min 2 min 64 W/m 0,0 km/h (0 Bft) 100,00 %
27.08.2015 17:08 14,4 C 13,9 C 12,8 C 94 % 15 lf 1011,0 hPa 0,0 l/m 0 min 2 min 62 W/m 0,0 km/h (0 Bft) 97,87 %
27.08.2015 17:10 14,4 C 13,9 C 13,3 C 94 % 15 lf 1011,0 hPa 0,0 l/m 0 min 2 min 57 W/m 0,0 km/h (0 Bft) 97,87 %
27.08.2015 17:12 14,4 C 13,9 C 12,8 C 94 % 15 lf 1010,9 hPa 0,0 l/m 0 min 2 min 53 W/m 0,0 km/h (0 Bft) 97,87 %
27.08.2015 17:14 14,4 C 13,9 C 12,8 C 94 % 15 lf 1011,0 hPa 0,0 l/m 0 min 2 min 49 W/m 0,0 km/h (0 Bft) 100,00 %
27.08.2015 17:16 14,4 C 13,9 C 12,8 C 94 % 15 lf 1011,0 hPa 0,2 l/m 0 min 2 min 50 W/m 0,0 km/h (0 Bft) 97,83 %
27.08.2015 17:18 14,4 C 13,3 C 12,8 C 94 % 15 lf 1011,0 hPa 0,0 l/m 0 min 2 min 52 W/m 0,0 km/h (0 Bft) 100,00 %
27.08.2015 17:20 14,3 C 13,9 C 12,8 C 94 % 15 lf 1011,0 hPa 0,2 l/m 0 min 2 min 54 W/m 0,0 km/h (0 Bft) 97,92 %
27.08.2015 17:22 14,3 C 13,9 C 12,8 C 94 % 15 lf 1011,1 hPa 0,0 l/m 0 min 2 min 48 W/m 0,0 km/h (0 Bft) 100,00 %
27.08.2015 17:24 14,3 C 13,9 C 12,8 C 94 % 15 lf 1011,0 hPa 0,0 l/m 0 min 2 min 46 W/m 0,0 km/h (0 Bft) 100,00 %
27.08.2015 17:26 14,3 C 13,3 C 12,8 C 94 % 15 lf 1011,0 hPa 0,0 l/m 0 min 2 min 46 W/m 2,1 km/h (1 Bft) 100,00 %
27.08.2015 17:28 14,3 C 13,9 C 12,8 C 94 % 15 lf 1011,0 hPa 0,2 l/m 0 min 2 min 46 W/m 0,0 km/h (0 Bft) 95,83 %
27.08.2015 17:30 14,2 C 13,3 C 12,8 C 94 % 15 lf 1011,1 hPa 0,0 l/m 0 min 2 min 46 W/m 2,1 km/h (1 Bft) 100,00 %
27.08.2015 17:32 14,2 C 13,3 C 12,8 C 94 % 15 lf 1011,0 hPa 0,0 l/m 0 min 2 min 47 W/m 0,0 km/h (0 Bft) 100,00 %
27.08.2015 17:34 14,2 C 13,3 C 12,8 C 94 % 15 lf 1011,0 hPa 0,2 l/m 0 min 2 min 50 W/m 0,0 km/h (0 Bft) 97,87 %
27.08.2015 17:36 14,2 C 13,3 C 12,8 C 94 % 15 lf 1011,1 hPa 0,0 l/m 0 min 2 min 48 W/m 0,0 km/h (0 Bft) 100,00 %
27.08.2015 17:38 14,2 C 13,3 C 12,8 C 94 % 15 lf 1011,1 hPa 0,0 l/m 0 min 2 min 48 W/m 0,0 km/h (0 Bft) 100,00 %
27.08.2015 17:40 14,2 C 13,3 C 12,8 C 94 % 15 lf 1011,1 hPa 0,0 l/m 0 min 2 min 50 W/m 0,0 km/h (0 Bft) 100,00 %
27.08.2015 17:42 14,2 C 13,3 C 12,8 C 94 % 15 lf 1011,1 hPa 0,2 l/m 0 min 2 min 52 W/m 0,0 km/h (0 Bft) 96,23 %
27.08.2015 17:44 14,2 C 13,3 C 12,8 C 94 % 15 lf 1011,1 hPa 0,0 l/m 0 min 2 min 52 W/m 0,0 km/h (0 Bft) 100,00 %
27.08.2015 17:46 14,2 C 13,3 C 12,8 C 94 % 15 lf 1011,1 hPa 0,0 l/m 0 min 2 min 51 W/m 0,0 km/h (0 Bft) 100,00 %
27.08.2015 17:48 14,1 C 13,3 C 12,8 C 94 % 15 lf 1011,1 hPa 0,2 l/m 0 min 2 min 50 W/m 0,0 km/h (0 Bft) 100,00 %
27.08.2015 17:50 14,1 C 13,3 C 12,8 C 94 % 15 lf 1011,1 hPa 0,0 l/m 0 min 2 min 47 W/m 0,0 km/h (0 Bft) 91,30 %
27.08.2015 17:52 14,1 C 13,3 C 12,8 C 94 % 15 lf 1011,1 hPa 0,0 l/m 0 min 2 min 49 W/m 0,0 km/h (0 Bft) 97,87 %
27.08.2015 17:54 14,1 C 13,3 C 12,8 C 94 % 15 lf 1011,1 hPa 0,0 l/m 0 min 2 min 50 W/m 0,0 km/h (0 Bft) 93,62 %
27.08.2015 17:56 14,1 C 13,3 C 12,8 C 94 % 15 lf 1011,0 hPa 0,0 l/m 0 min 2 min 53 W/m 0,0 km/h (0 Bft) 95,74 %
27.08.2015 17:58 14,1 C 13,3 C 12,8 C 94 % 15 lf 1011,0 hPa 0,2 l/m 0 min 2 min 53 W/m 0,0 km/h (0 Bft) 95,74 %
27.08.2015 18:00 14,1 C 13,3 C 12,8 C 94 % 15 lf 1010,9 hPa 0,0 l/m 0 min 2 min 50 W/m 2,1 km/h (1 Bft) 94,34 %
27.08.2015 18:03 14,0 C 13,3 C 12,8 C 94 % 15 lf 1011,0 hPa 0,0 l/m 0 min 2 min 51 W/m 2,1 km/h (1 Bft) 94,34 %
27.08.2015 18:04 14,0 C 13,3 C 12,8 C 94 % 15 lf 1010,9 hPa 0,2 l/m 0 min 1 min 53 W/m 2,1 km/h (1 Bft) 94,34 %
27.08.2015 18:08 14,0 C 13,9 C 12,8 C 94 % 15 lf 1010,9 hPa 0,2 l/m 0 min 2 min 51 W/m 0,0 km/h (0 Bft) 93,89 %
27.08.2015 18:10 14,0 C 13,9 C 12,8 C 94 % 15 lf 1010,8 hPa 0,0 l/m 0 min 2 min 57 W/m 0,0 km/h (0 Bft) 95,83 %
27.08.2015 18:12 14,0 C 13,9 C 12,8 C 94 % 15 lf 1010,7 hPa 0,0 l/m 0 min 2 min 59 W/m 0,0 km/h (0 Bft) 93,62 %
27.08.2015 18:14 14,1 C 13,9 C 12,8 C 95 % 15 lf 1010,8 hPa 0,0 l/m 0 min 2 min 63 W/m 0,0 km/h (0 Bft) 93,48 %
27.08.2015 18:16 14,1 C 13,9 C 12,8 C 95 % 15 lf 1010,9 hPa 0,0 l/m 0 min 2 min 61 W/m 0,0 km/h (0 Bft) 95,74 %
27.08.2015 18:18 14,1 C 13,9 C 12,8 C 95 % 15 lf 1010,9 hPa 0,0 l/m 0 min 2 min 61 W/m 0,0 km/h (0 Bft) 93,62 %
27.08.2015 18:20 14,1 C 13,9 C 12,8 C 95 % 15 lf 1010,7 hPa 0,0 l/m 0 min 2 min 57 W/m 0,0 km/h (0 Bft) 82,98 %
27.08.2015 18:22 14,2 C 13,9 C 12,8 C 95 % 15 lf 1010,8 hPa 0,0 l/m 0 min 2 min 51 W/m 0,0 km/h (0 Bft) 92,45 %
27.08.2015 18:24 14,2 C 13,9 C 12,8 C 95 % 15 lf 1010,7 hPa 0,0 l/m 0 min 2 min 46 W/m 0,0 km/h (0 Bft) 91,84 %
27.08.2015 18:26 14,2 C 13,9 C 13,3 C 95 % 15 lf 1010,7 hPa 0,0 l/m 0 min 2 min 45 W/m 0,0 km/h (0 Bft) 93,75 %
27.08.2015 18:28 14,2 C 13,9 C 13,3 C 95 % 15 lf 1010,7 hPa 0,0 l/m 0 min 2 min 46 W/m 0,0 km/h (0 Bft) 91,67 %
27.08.2015 18:30 14,2 C 13,9 C 13,3 C 95 % 15 lf 1010,8 hPa 0,0 l/m 0 min 2 min 43 W/m 0,0 km/h (0 Bft) 93,75 %
27.08.2015 18:32 14,2 C 13,9 C 13,3 C 95 % 15 lf 1010,9 hPa 0,2 l/m 0 min 2 min 40 W/m 0,0 km/h (0 Bft) 89,36 %
27.08.2015 18:34 14,2 C 13,9 C 12,8 C 95 % 15 lf 1010,9 hPa 0,0 l/m 0 min 2 min 44 W/m 0,0 km/h (0 Bft) 93,62 %
27.08.2015 18:36 14,2 C 13,9 C 12,8 C 95 % 15 lf 1010,9 hPa 0,0 l/m 0 min 2 min 46 W/m 0,0 km/h (0 Bft) 97,87 %
27.08.2015 18:38 14,2 C 13,9 C 12,8 C 95 % 15 lf 1010,8 hPa 0,0 l/m 0 min 2 min 40 W/m 0,0 km/h (0 Bft) 92,31 %
27.08.2015 18:40 14,2 C 13,9 C 12,8 C 95 % 15 lf 1010,8 hPa 0,0 l/m 0 min 2 min 40 W/m 2,1 km/h (1 Bft) 93,75 %
27.08.2015 18:42 14,2 C 13,3 C 12,8 C 95 % 15 lf 1010,8 hPa 0,0 l/m 0 min 2 min 44 W/m 0,0 km/h (0 Bft) 95,83 %
27.08.2015 18:44 14,2 C 13,3 C 12,8 C 95 % 15 lf 1010,9 hPa 0,0 l/m 0 min 2 min 43 W/m 0,0 km/h (0 Bft) 95,83 %
27.08.2015 18:46 14,2 C 13,3 C 12,8 C 95 % 15 lf 1011,0 hPa 0,0 l/m 0 min 2 min 39 W/m 0,0 km/h (0 Bft) 93,75 %
27.08.2015 18:48 14,2 C 13,3 C 12,8 C 95 % 15 lf 1010,9 hPa 0,0 l/m 0 min 2 min 33 W/m 0,0 km/h (0 Bft) 93,48 %
27.08.2015 18:50 14,2 C 13,3 C 12,8 C 95 % 15 lf 1011,0 hPa 0,2 l/m 0 min 2 min 30 W/m 0,0 km/h (0 Bft) 94,59 %
27.08.2015 18:52 14,1 C 13,3 C 12,8 C 95 % 15 lf 1011,0 hPa 0,0 l/m 0 min 2 min 30 W/m 0,0 km/h (0 Bft) 100,00 %
27.08.2015 18:54 14,1 C 13,3 C 12,8 C 95 % 15 lf 1011,0 hPa 0,0 l/m 0 min 2 min 30 W/m 0,0 km/h (0 Bft) 97,87 %
27.08.2015 18:56 14,1 C 13,3 C 12,8 C 95 % 15 lf 1010,9 hPa 0,0 l/m 0 min 2 min 31 W/m 0,0 km/h (0 Bft) 97,87 %
27.08.2015 18:58 14,1 C 13,3 C 12,8 C 95 % 15 lf 1011,0 hPa 0,0 l/m 0 min 2 min 33 W/m 0,0 km/h (0 Bft) 100,00 %
27.08.2015 19:00 14,1 C 13,9 C 12,8 C 95 % 15 lf 1011,1 hPa 0,0 l/m 0 min 2 min 33 W/m 0,0 km/h (0 Bft) 95,74 %
27.08.2015 19:02 14,1 C 13,9 C 12,8 C 95 % 15 lf 1011,0 hPa 0,2 l/m 0 min 2 min 32 W/m 0,0 km/h (0 Bft) 96,15 %
27.08.2015 19:04 14,1 C 13,3 C 12,8 C 95 % 15 lf 1011,0 hPa 0,0 l/m 0 min 2 min 28 W/m 0,0 km/h (0 Bft) 100,00 %
27.08.2015 19:06 14,1 C 13,9 C 12,8 C 95 % 15 lf 1011,1 hPa 0,0 l/m 0 min 2 min 26 W/m 0,0 km/h (0 Bft) 95,92 %
27.08.2015 19:08 14,1 C 13,3 C 12,8 C 95 % 15 lf 1011,1 hPa 0,0 l/m 0 min 2 min 24 W/m 0,0 km/h (0 Bft) 94,59 %
27.08.2015 19:10 14,1 C 13,9 C 12,8 C 95 % 15 lf 1011,1 hPa 0,0 l/m 0 min 2 min 26 W/m 0,0 km/h (0 Bft) 95,83 %
27.08.2015 19:12 14,1 C 13,9 C 12,8 C 95 % 15 lf 1011,1 hPa 0,2 l/m 0 min 2 min 26 W/m 0,0 km/h (0 Bft) 93,48 %
27.08.2015 19:14 14,1 C 13,3 C 12,8 C 95 % 15 lf 1011,1 hPa 0,0 l/m 0 min 2 min 24 W/m 0,0 km/h (0 Bft) 97,87 %
27.08.2015 19:16 14,1 C 13,3 C 12,8 C 95 % 15 lf 1011,1 hPa 0,2 l/m 0 min 2 min 20 W/m 0,0 km/h (0 Bft) 97,87 %
27.08.2015 19:18 14,1 C 13,3 C 12,8 C 95 % 15 lf 1011,0 hPa 0,0 l/m 0 min 2 min 19 W/m 0,0 km/h (0 Bft) 97,87 %
27.08.2015 19:20 14,1 C 13,3 C 12,8 C 95 % 15 lf 1011,1 hPa 0,0 l/m 0 min 2 min 19 W/m 0,0 km/h (0 Bft) 93,62 %
27.08.2015 19:22 14,1 C 13,3 C 12,8 C 95 % 15 lf 1011,1 hPa 0,0 l/m 0 min 2 min 21 W/m 0,0 km/h (0 Bft) 97,87 %
27.08.2015 19:24 14,0 C 13,3 C 12,8 C 95 % 15 lf 1011,0 hPa 0,0 l/m 0 min 2 min 22 W/m 0,0 km/h (0 Bft) 97,83 %
27.08.2015 19:26 14,0 C 13,3 C 12,8 C 95 % 15 lf 1011,0 hPa 0,2 l/m 0 min 2 min 23 W/m 0,0 km/h (0 Bft) 98,11 %
27.08.2015 19:28 14,0 C 13,3 C 12,8 C 95 % 15 lf 1011,1 hPa 0,0 l/m 0 min 2 min 22 W/m 0,0 km/h (0 Bft) 87,23 %
27.08.2015 19:30 14,0 C 13,3 C 12,8 C 95 % 15 lf 1011,2 hPa 0,0 l/m 0 min 2 min 19 W/m 0,0 km/h (0 Bft) 97,92 %
27.08.2015 19:31 14,0 C 13,3 C 12,8 C 95 % 15 lf 1011,2 hPa 0,0 l/m 0 min 1 min 20 W/m 0,0 km/h (0 Bft) 86,96 %
27.08.2015 19:34 14,0 C 13,3 C 12,8 C 95 % 15 lf 1011,1 hPa 0,2 l/m 0 min 2 min 21 W/m 0,0 km/h (0 Bft) 95,40 %
27.08.2015 19:36 14,0 C 13,9 C 12,8 C 95 % 15 lf 1011,1 hPa 0,0 l/m 0 min 2 min 22 W/m 0,0 km/h (0 Bft) 97,83 %
27.08.2015 19:38 14,0 C 13,9 C 12,8 C 95 % 15 lf 1011,1 hPa 0,0 l/m 0 min 2 min 24 W/m 0,0 km/h (0 Bft) 90,57 %
27.08.2015 19:40 14,0 C 13,9 C 12,8 C 95 % 15 lf 1011,1 hPa 0,0 l/m 0 min 2 min 24 W/m 0,0 km/h (0 Bft) 98,04 %
27.08.2015 19:42 14,0 C 13,3 C 12,8 C 95 % 15 lf 1011,1 hPa 0,0 l/m 0 min 2 min 23 W/m 0,0 km/h (0 Bft) 94,59 %
27.08.2015 19:44 14,0 C 13,3 C 12,8 C 95 % 15 lf 1011,0 hPa 0,0 l/m 0 min 2 min 21 W/m 0,0 km/h (0 Bft) 97,87 %
27.08.2015 19:46 14,0 C 13,3 C 12,8 C 95 % 15 lf 1011,1 hPa 0,0 l/m 0 min 2 min 18 W/m 0,0 km/h (0 Bft) 94,64 %
27.08.2015 19:48 14,0 C 13,3 C 12,8 C 95 % 15 lf 1011,0 hPa 0,2 l/m 0 min 2 min 15 W/m 0,0 km/h (0 Bft) 97,30 %
27.08.2015 19:50 14,0 C 13,3 C 12,8 C 95 % 15 lf 1011,0 hPa 0,0 l/m 0 min 2 min 12 W/m 0,0 km/h (0 Bft) 97,87 %
27.08.2015 19:52 13,9 C 13,3 C 12,8 C 96 % 15 lf 1011,0 hPa 0,0 l/m 0 min 2 min 11 W/m 0,0 km/h (0 Bft) 100,00 %
27.08.2015 19:54 14,0 C 13,3 C 12,8 C 96 % 15 lf 1011,0 hPa 0,0 l/m 0 min 2 min 11 W/m 0,0 km/h (0 Bft) 100,00 %
27.08.2015 19:56 13,9 C 13,3 C 12,2 C 96 % 15 lf 1010,9 hPa 0,0 l/m 0 min 2 min 11 W/m 0,0 km/h (0 Bft) 100,00 %
27.08.2015 19:58 13,9 C 13,3 C 12,2 C 96 % 15 lf 1011,0 hPa 0,0 l/m 0 min 2 min 11 W/m 0,0 km/h (0 Bft) 98,21 %
27.08.2015 20:00 13,9 C 13,3 C 12,8 C 96 % 15 lf 1011,0 hPa 0,2 l/m 0 min 2 min 12 W/m 2,1 km/h (1 Bft) 95,65 %
27.08.2015 20:02 13,9 C 13,3 C 12,8 C 96 % 15 lf 1011,0 hPa 0,0 l/m 0 min 2 min 11 W/m 0,0 km/h (0 Bft) 97,37 %
27.08.2015 20:04 13,9 C 13,3 C 12,8 C 96 % 15 lf 1010,9 hPa 0,0 l/m 0 min 2 min 9 W/m 0,0 km/h (0 Bft) 100,00 %
27.08.2015 20:06 13,9 C 13,3 C 12,2 C 96 % 15 lf 1010,8 hPa 0,0 l/m 0 min 2 min 8 W/m 0,0 km/h (0 Bft) 97,87 %
27.08.2015 20:08 13,9 C 13,3 C 12,8 C 96 % 15 lf 1010,8 hPa 0,0 l/m 0 min 2 min 7 W/m 0,0 km/h (0 Bft) 96,36 %
27.08.2015 20:09 13,9 C 13,3 C 12,8 C 96 % 15 lf 1010,8 hPa 0,2 l/m 0 min 1 min 5 W/m 0,0 km/h (0 Bft) 86,96 %
27.08.2015 20:12 13,8 C 13,3 C 12,8 C 96 % 15 lf 1010,7 hPa 0,0 l/m 0 min 2 min 5 W/m 0,0 km/h (0 Bft) 96,74 %
27.08.2015 20:14 13,8 C 13,3 C 12,2 C 96 % 15 lf 1010,7 hPa 0,0 l/m 0 min 2 min 2 W/m 0,0 km/h (0 Bft) 94,87 %
27.08.2015 20:16 13,8 C 13,3 C 12,8 C 96 % 15 lf 1010,8 hPa 0,0 l/m 0 min 2 min 0 W/m 0,0 km/h (0 Bft) 97,87 %
27.08.2015 20:18 13,8 C 13,3 C 12,8 C 96 % 15 lf 1010,9 hPa 0,0 l/m 0 min 2 min 0 W/m 0,0 km/h (0 Bft) 93,75 %
27.08.2015 20:20 13,8 C 13,3 C 12,8 C 96 % 15 lf 1010,9 hPa 0,2 l/m 0 min 2 min 0 W/m 0,0 km/h (0 Bft) 93,62 %
27.08.2015 20:22 13,8 C 13,3 C 12,8 C 96 % 15 lf 1011,0 hPa 0,0 l/m 0 min 2 min 0 W/m 0,0 km/h (0 Bft) 97,87 %
27.08.2015 20:24 13,8 C 13,3 C 12,8 C 96 % 15 lf 1011,2 hPa 0,0 l/m 0 min 2 min 0 W/m 0,0 km/h (0 Bft) 93,48 %
27.08.2015 20:26 13,8 C 13,3 C 12,8 C 96 % 15 lf 1011,1 hPa 0,0 l/m 0 min 2 min 0 W/m 0,0 km/h (0 Bft) 94,64 %
27.08.2015 20:28 13,8 C 13,3 C 12,8 C 96 % 15 lf 1011,1 hPa 0,0 l/m 0 min 2 min 0 W/m 0,0 km/h (0 Bft) 97,87 %
27.08.2015 20:30 13,8 C 13,3 C 12,8 C 96 % 15 lf 1011,2 hPa 0,0 l/m 0 min 2 min 0 W/m 0,0 km/h (0 Bft) 97,30 %
27.08.2015 20:32 13,8 C 13,3 C 12,8 C 96 % 15 lf 1011,2 hPa 0,0 l/m 0 min 2 min 0 W/m 0,0 km/h (0 Bft) 96,49 %
27.08.2015 20:34 13,8 C 13,3 C 12,8 C 96 % 15 lf 1011,2 hPa 0,2 l/m 0 min 2 min 0 W/m 0,0 km/h (0 Bft) 100,00 %
27.08.2015 20:36 13,8 C 13,3 C 12,8 C 96 % 15 lf 1011,1 hPa 0,0 l/m 0 min 2 min 0 W/m 0,0 km/h (0 Bft) 87,50 %
27.08.2015 20:38 13,8 C 13,3 C 12,2 C 96 % 15 lf 1011,2 hPa 0,0 l/m 0 min 2 min 0 W/m 0,0 km/h (0 Bft) 95,74 %
27.08.2015 20:40 13,8 C 13,3 C 12,8 C 96 % 15 lf 1011,2 hPa 0,0 l/m 0 min 2 min 0 W/m 0,0 km/h (0 Bft) 93,62 %
27.08.2015 20:42 13,8 C 13,3 C 12,8 C 96 % 15 lf 1011,2 hPa 0,2 l/m 0 min 2 min 0 W/m 0,0 km/h (0 Bft) 98,21 %
27.08.2015 20:44 13,8 C 13,3 C 12,2 C 96 % 15 lf 1011,3 hPa 0,0 l/m 0 min 2 min 0 W/m 0,0 km/h (0 Bft) 100,00 %
27.08.2015 20:46 13,7 C 13,3 C 12,2 C 96 % 15 lf 1011,3 hPa 0,0 l/m 0 min 2 min 0 W/m 0,0 km/h (0 Bft) 97,83 %
27.08.2015 20:48 13,7 C 13,3 C 12,8 C 96 % 15 lf 1011,3 hPa 0,0 l/m 0 min 2 min 0 W/m 0,0 km/h (0 Bft) 97,87 %
27.08.2015 20:50 13,7 C 13,3 C 12,2 C 96 % 15 lf 1011,3 hPa 0,2 l/m 0 min 2 min 0 W/m 0,0 km/h (0 Bft) 98,18 %
27.08.2015 20:52 13,7 C 13,3 C 12,2 C 96 % 15 lf 1011,2 hPa 0,0 l/m 0 min 2 min 0 W/m 0,0 km/h (0 Bft) 91,49 %
27.08.2015 20:54 13,7 C 13,3 C 12,2 C 96 % 15 lf 1011,0 hPa 0,0 l/m 0 min 2 min 0 W/m 0,0 km/h (0 Bft) 97,92 %
27.08.2015 20:56 13,7 C 13,3 C 12,2 C 96 % 15 lf 1011,0 hPa 0,2 l/m 0 min 2 min 0 W/m 0,0 km/h (0 Bft) 97,30 %
27.08.2015 20:58 13,7 C 13,3 C 12,2 C 96 % 15 lf 1011,0 hPa 0,0 l/m 0 min 2 min 0 W/m 0,0 km/h (0 Bft) 97,87 %
27.08.2015 21:00 13,7 C 13,3 C 12,2 C 96 % 15 lf 1011,0 hPa 0,0 l/m 0 min 2 min 0 W/m 0,0 km/h (0 Bft) 95,74 %
27.08.2015 21:02 13,7 C 13,3 C 12,2 C 96 % 15 lf 1011,1 hPa 0,0 l/m 0 min 2 min 0 W/m 0,0 km/h (0 Bft) 97,87 %
27.08.2015 21:04 13,7 C 13,3 C 12,2 C 96 % 15 lf 1011,1 hPa 0,2 l/m 0 min 2 min 0 W/m 0,0 km/h (0 Bft) 97,87 %
27.08.2015 21:06 13,7 C 13,3 C 12,2 C 96 % 15 lf 1011,2 hPa 0,0 l/m 0 min 2 min 0 W/m 0,0 km/h (0 Bft) 95,74 %
27.08.2015 21:08 13,7 C 13,3 C 12,2 C 96 % 15 lf 1011,1 hPa 0,0 l/m 0 min 2 min 0 W/m 0,0 km/h (0 Bft) 93,62 %
27.08.2015 21:10 13,7 C 13,3 C 12,8 C 96 % 15 lf 1011,2 hPa 0,2 l/m 0 min 2 min 0 W/m 0,0 km/h (0 Bft) 97,83 %
27.08.2015 21:12 13,7 C 13,3 C 12,2 C 96 % 15 lf 1011,2 hPa 0,0 l/m 0 min 2 min 0 W/m 0,0 km/h (0 Bft) 98,15 %
27.08.2015 21:14 13,7 C 13,3 C 12,2 C 96 % 15 lf 1011,2 hPa 0,0 l/m 0 min 2 min 0 W/m 0,0 km/h (0 Bft) 97,44 %
27.08.2015 21:16 13,7 C 13,3 C 12,2 C 96 % 15 lf 1011,2 hPa 0,0 l/m 0 min 2 min 0 W/m 0,0 km/h (0 Bft) 97,92 %
27.08.2015 21:18 13,7 C 13,3 C 12,2 C 96 % 15 lf 1011,3 hPa 0,2 l/m 0 min 2 min 0 W/m 0,0 km/h (0 Bft) 97,87 %
27.08.2015 21:20 13,7 C 13,3 C 12,8 C 96 % 15 lf 1011,5 hPa 0,0 l/m 0 min 2 min 0 W/m 0,0 km/h (0 Bft) 97,87 %
27.08.2015 21:22 13,7 C 13,3 C 12,8 C 96 % 15 lf 1011,5 hPa 0,0 l/m 0 min 2 min 0 W/m 0,0 km/h (0 Bft) 97,83 %
27.08.2015 21:24 13,7 C 13,3 C 12,2 C 96 % 15 lf 1011,5 hPa 0,0 l/m 0 min 2 min 0 W/m 0,0 km/h (0 Bft) 96,30 %
27.08.2015 21:26 13,7 C 13,3 C 12,2 C 96 % 15 lf 1011,5 hPa 0,2 l/m 0 min 2 min 0 W/m 0,0 km/h (0 Bft) 97,92 %
27.08.2015 21:28 13,7 C 13,3 C 12,2 C 96 % 15 lf 1011,5 hPa 0,0 l/m 0 min 2 min 0 W/m 0,0 km/h (0 Bft) 95,65 %
27.08.2015 21:30 13,7 C 13,3 C 12,2 C 96 % 15 lf 1011,5 hPa 0,0 l/m 0 min 2 min 0 W/m 0,0 km/h (0 Bft) 97,92 %
27.08.2015 21:32 13,7 C 13,3 C 12,2 C 96 % 15 lf 1011,4 hPa 0,0 l/m 0 min 2 min 0 W/m 0,0 km/h (0 Bft) 95,83 %
27.08.2015 21:34 13,7 C 13,3 C 12,2 C 96 % 15 lf 1011,4 hPa 0,2 l/m 0 min 2 min 0 W/m 0,0 km/h (0 Bft) 100,00 %
27.08.2015 21:36 13,7 C 13,3 C 12,2 C 96 % 15 lf 1011,4 hPa 0,0 l/m 0 min 2 min 0 W/m 0,0 km/h (0 Bft) 100,00 %
27.08.2015 21:38 13,7 C 13,3 C 12,2 C 96 % 15 lf 1011,5 hPa 0,0 l/m 0 min 2 min 0 W/m 0,0 km/h (0 Bft) 95,74 %
27.08.2015 21:40 13,7 C 13,3 C 12,2 C 96 % 15 lf 1011,6 hPa 0,2 l/m 0 min 2 min 0 W/m 0,0 km/h (0 Bft) 97,87 %
27.08.2015 21:42 13,7 C 13,3 C 12,2 C 96 % 15 lf 1011,6 hPa 0,0 l/m 0 min 2 min 0 W/m 0,0 km/h (0 Bft) 95,74 %
27.08.2015 21:44 13,7 C 13,3 C 12,2 C 96 % 15 lf 1011,6 hPa 0,0 l/m 0 min 2 min 0 W/m 0,0 km/h (0 Bft) 95,65 %
27.08.2015 21:46 13,7 C 13,3 C 12,2 C 96 % 15 lf 1011,8 hPa 0,0 l/m 0 min 2 min 0 W/m 0,0 km/h (0 Bft) 98,21 %
27.08.2015 21:48 13,6 C 13,3 C 12,2 C 96 % 15 lf 1011,8 hPa 0,0 l/m 0 min 2 min 0 W/m 0,0 km/h (0 Bft) 97,30 %
27.08.2015 21:50 13,6 C 13,3 C 12,2 C 96 % 15 lf 1011,8 hPa 0,0 l/m 0 min 2 min 0 W/m 2,1 km/h (1 Bft) 97,92 %
27.08.2015 21:52 13,6 C 13,3 C 12,2 C 96 % 15 lf 1011,8 hPa 0,0 l/m 0 min 2 min 0 W/m 0,0 km/h (0 Bft) 93,62 %
27.08.2015 21:54 13,6 C 13,3 C 12,2 C 96 % 15 lf 1011,8 hPa 0,2 l/m 0 min 2 min 0 W/m 0,0 km/h (0 Bft) 95,74 %
27.08.2015 21:56 13,6 C 13,3 C 12,2 C 96 % 15 lf 1011,8 hPa 0,0 l/m 0 min 2 min 0 W/m 0,0 km/h (0 Bft) 95,65 %
27.08.2015 21:58 13,6 C 13,3 C 12,2 C 96 % 15 lf 1011,9 hPa 0,0 l/m 0 min 2 min 0 W/m 0,0 km/h (0 Bft) 94,44 %
27.08.2015 22:00 13,6 C 13,3 C 12,2 C 96 % 15 lf 1011,8 hPa 0,0 l/m 0 min 2 min 0 W/m 0,0 km/h (0 Bft) 92,31 %
27.08.2015 22:02 13,6 C 13,3 C 12,2 C 96 % 15 lf 1011,8 hPa 0,0 l/m 0 min 2 min 0 W/m 0,0 km/h (0 Bft) 93,62 %
27.08.2015 22:04 13,6 C 13,3 C 12,2 C 96 % 15 lf 1011,8 hPa 0,2 l/m 0 min 2 min 0 W/m 0,0 km/h (0 Bft) 91,49 %
27.08.2015 22:06 13,6 C 13,3 C 12,2 C 96 % 15 lf 1011,7 hPa 0,0 l/m 0 min 2 min 0 W/m 0,0 km/h (0 Bft) 93,62 %
27.08.2015 22:08 13,5 C 13,3 C 12,2 C 96 % 15 lf 1011,7 hPa 0,0 l/m 0 min 2 min 0 W/m 0,0 km/h (0 Bft) 91,30 %
27.08.2015 22:10 13,5 C 13,3 C 12,2 C 96 % 15 lf 1011,6 hPa 0,2 l/m 0 min 2 min 0 W/m 0,0 km/h (0 Bft) 93,62 %
27.08.2015 22:12 13,5 C 13,3 C 12,2 C 96 % 15 lf 1011,5 hPa 0,0 l/m 0 min 2 min 0 W/m 0,0 km/h (0 Bft) 91,49 %
27.08.2015 22:14 13,5 C 13,3 C 12,2 C 96 % 15 lf 1011,6 hPa 0,2 l/m 0 min 2 min 0 W/m 0,0 km/h (0 Bft) 92,45 %
27.08.2015 22:16 13,5 C 13,3 C 12,2 C 96 % 15 lf 1011,6 hPa 0,0 l/m 0 min 2 min 0 W/m 0,0 km/h (0 Bft) 91,67 %
27.08.2015 22:18 13,5 C 13,3 C 12,2 C 96 % 15 lf 1011,7 hPa 0,0 l/m 0 min 2 min 0 W/m 0,0 km/h (0 Bft) 91,67 %
27.08.2015 22:20 13,5 C 13,3 C 12,2 C 96 % 15 lf 1011,7 hPa 0,2 l/m 0 min 2 min 0 W/m 0,0 km/h (0 Bft) 91,67 %
27.08.2015 22:22 13,5 C 13,3 C 12,2 C 96 % 15 lf 1011,7 hPa 0,0 l/m 0 min 2 min 0 W/m 0,0 km/h (0 Bft) 91,67 %
27.08.2015 22:24 13,5 C 13,3 C 12,2 C 96 % 15 lf 1011,6 hPa 0,0 l/m 0 min 2 min 0 W/m 0,0 km/h (0 Bft) 91,49 %
27.08.2015 22:26 13,5 C 13,3 C 12,2 C 96 % 15 lf 1011,6 hPa 0,2 l/m 0 min 2 min 0 W/m 0,0 km/h (0 Bft) 93,62 %
27.08.2015 22:28 13,5 C 13,3 C 12,2 C 96 % 15 lf 1011,7 hPa 0,0 l/m 0 min 2 min 0 W/m 0,0 km/h (0 Bft) 93,75 %
27.08.2015 22:30 13,5 C 13,3 C 12,2 C 96 % 15 lf 1011,8 hPa 0,0 l/m 0 min 2 min 0 W/m 0,0 km/h (0 Bft) 93,62 %
27.08.2015 22:32 13,5 C 13,3 C 12,2 C 96 % 15 lf 1011,8 hPa 0,2 l/m 0 min 2 min 0 W/m 0,0 km/h (0 Bft) 91,30 %
27.08.2015 22:34 13,5 C 13,3 C 12,2 C 96 % 15 lf 1011,9 hPa 0,2 l/m 0 min 2 min 0 W/m 0,0 km/h (0 Bft) 91,49 %
27.08.2015 22:36 13,5 C 13,3 C 12,2 C 96 % 15 lf 1011,8 hPa 0,0 l/m 0 min 2 min 0 W/m 0,0 km/h (0 Bft) 94,55 %
27.08.2015 22:38 13,5 C 13,3 C 12,2 C 96 % 15 lf 1011,9 hPa 0,0 l/m 0 min 2 min 0 W/m 0,0 km/h (0 Bft) 95,74 %
27.08.2015 22:40 13,5 C 13,3 C 12,2 C 97 % 15 lf 1011,9 hPa 0,0 l/m 0 min 2 min 0 W/m 0,0 km/h (0 Bft) 93,75 %
27.08.2015 22:42 13,5 C 13,3 C 12,2 C 97 % 15 lf 1011,9 hPa 0,2 l/m 0 min 2 min 0 W/m 0,0 km/h (0 Bft) 100,00 %
27.08.2015 22:44 13,5 C 13,3 C 12,2 C 97 % 15 lf 1011,8 hPa 0,0 l/m 0 min 2 min 0 W/m 0,0 km/h (0 Bft) 94,44 %
27.08.2015 22:46 13,5 C 13,3 C 12,2 C 97 % 15 lf 1011,9 hPa 0,0 l/m 0 min 2 min 0 W/m 0,0 km/h (0 Bft) 97,92 %
27.08.2015 22:48 13,5 C 12,8 C 12,2 C 97 % 15 lf 1012,0 hPa 0,0 l/m 0 min 2 min 0 W/m 0,0 km/h (0 Bft) 97,87 %
27.08.2015 22:50 13,4 C 13,3 C 12,2 C 97 % 15 lf 1011,9 hPa 0,2 l/m 0 min 2 min 0 W/m 0,0 km/h (0 Bft) 95,74 %
27.08.2015 22:52 13,4 C 12,8 C 12,2 C 97 % 15 lf 1012,0 hPa 0,0 l/m 0 min 2 min 0 W/m 0,0 km/h (0 Bft) 97,87 %
27.08.2015 22:54 13,4 C 12,8 C 12,2 C 97 % 15 lf 1012,0 hPa 0,0 l/m 0 min 2 min 0 W/m 0,0 km/h (0 Bft) 95,74 %
27.08.2015 22:56 13,4 C 12,8 C 12,2 C 97 % 15 lf 1012,0 hPa 0,0 l/m 0 min 2 min 0 W/m 0,0 km/h (0 Bft) 100,00 %
27.08.2015 22:58 13,4 C 13,3 C 12,2 C 97 % 15 lf 1012,0 hPa 0,2 l/m 0 min 2 min 0 W/m 0,0 km/h (0 Bft) 100,00 %
27.08.2015 23:00 13,4 C 12,8 C 12,2 C 97 % 15 lf 1012,0 hPa 0,0 l/m 0 min 2 min 0 W/m 0,0 km/h (0 Bft) 95,74 %
27.08.2015 23:02 13,4 C 12,8 C 12,2 C 97 % 15 lf 1012,0 hPa 0,2 l/m 0 min 2 min 0 W/m 0,0 km/h (0 Bft) 95,74 %
27.08.2015 23:04 13,4 C 12,8 C 12,2 C 97 % 15 lf 1012,0 hPa 0,0 l/m 0 min 2 min 0 W/m 0,0 km/h (0 Bft) 100,00 %
27.08.2015 23:06 13,4 C 12,8 C 12,2 C 97 % 15 lf 1012,0 hPa 0,0 l/m 0 min 2 min 0 W/m 0,0 km/h (0 Bft) 100,00 %
27.08.2015 23:08 13,4 C 12,8 C 12,2 C 97 % 15 lf 1012,1 hPa 0,0 l/m 0 min 2 min 0 W/m 0,0 km/h (0 Bft) 95,83 %
27.08.2015 23:10 13,4 C 12,8 C 12,2 C 97 % 15 lf 1012,1 hPa 0,2 l/m 0 min 2 min 0 W/m 0,0 km/h (0 Bft) 100,00 %
27.08.2015 23:12 13,4 C 12,8 C 12,2 C 97 % 15 lf 1012,1 hPa 0,0 l/m 0 min 2 min 0 W/m 0,0 km/h (0 Bft) 97,87 %
27.08.2015 23:14 13,4 C 12,8 C 12,2 C 97 % 15 lf 1012,1 hPa 0,0 l/m 0 min 2 min 0 W/m 0,0 km/h (0 Bft) 100,00 %
27.08.2015 23:16 13,4 C 12,8 C 12,2 C 97 % 15 lf 1012,1 hPa 0,0 l/m 0 min 2 min 0 W/m 0,0 km/h (0 Bft) 100,00 %
27.08.2015 23:18 13,4 C 12,8 C 12,2 C 97 % 15 lf 1012,0 hPa 0,2 l/m 0 min 2 min 0 W/m 0,0 km/h (0 Bft) 98,11 %
27.08.2015 23:20 13,4 C 12,8 C 12,2 C 97 % 15 lf 1011,9 hPa 0,0 l/m 0 min 2 min 0 W/m 0,0 km/h (0 Bft) 100,00 %
27.08.2015 23:22 13,4 C 12,8 C 12,2 C 97 % 15 lf 1012,0 hPa 0,0 l/m 0 min 2 min 0 W/m 0,0 km/h (0 Bft) 100,00 %
27.08.2015 23:24 13,4 C 12,8 C 12,2 C 97 % 15 lf 1011,9 hPa 0,0 l/m 0 min 2 min 0 W/m 0,0 km/h (0 Bft) 97,87 %
27.08.2015 23:26 13,3 C 12,8 C 12,2 C 97 % 15 lf 1012,0 hPa 0,0 l/m 0 min 2 min 0 W/m 0,0 km/h (0 Bft) 97,30 %
27.08.2015 23:28 13,3 C 12,8 C 12,2 C 97 % 15 lf 1011,9 hPa 0,0 l/m 0 min 2 min 0 W/m 0,0 km/h (0 Bft) 97,87 %
27.08.2015 23:30 13,3 C 12,8 C 12,2 C 97 % 15 lf 1011,8 hPa 0,0 l/m 0 min 2 min 0 W/m 0,0 km/h (0 Bft) 97,87 %
27.08.2015 23:32 13,3 C 12,8 C 12,2 C 97 % 15 lf 1011,8 hPa 0,0 l/m 0 min 2 min 0 W/m 0,0 km/h (0 Bft) 100,00 %
27.08.2015 23:34 13,3 C 12,8 C 12,2 C 97 % 15 lf 1011,6 hPa 0,0 l/m 0 min 2 min 0 W/m 0,0 km/h (0 Bft) 100,00 %
27.08.2015 23:36 13,3 C 12,8 C 12,2 C 97 % 15 lf 1011,6 hPa 0,0 l/m 0 min 2 min 0 W/m 0,0 km/h (0 Bft) 100,00 %
27.08.2015 23:38 13,3 C 12,8 C 12,2 C 97 % 15 lf 1011,8 hPa 0,0 l/m 0 min 2 min 0 W/m 0,0 km/h (0 Bft) 100,00 %
27.08.2015 23:40 13,3 C 12,8 C 12,2 C 97 % 15 lf 1011,7 hPa 0,0 l/m 0 min 2 min 0 W/m 0,0 km/h (0 Bft) 100,00 %
27.08.2015 23:42 13,3 C 12,8 C 12,2 C 97 % 15 lf 1011,8 hPa 0,0 l/m 0 min 2 min 0 W/m 0,0 km/h (0 Bft) 93,75 %
27.08.2015 23:44 13,3 C 12,8 C 12,2 C 97 % 15 lf 1011,9 hPa 0,0 l/m 0 min 2 min 0 W/m 0,0 km/h (0 Bft) 95,83 %
27.08.2015 23:46 13,3 C 13,3 C 12,2 C 97 % 15 lf 1012,1 hPa 0,0 l/m 0 min 2 min 0 W/m 0,0 km/h (0 Bft) 97,22 %
27.08.2015 23:48 13,3 C 12,8 C 12,2 C 97 % 15 lf 1012,2 hPa 0,0 l/m 0 min 2 min 0 W/m 0,0 km/h (0 Bft) 97,92 %
27.08.2015 23:50 13,3 C 12,8 C 12,2 C 97 % 15 lf 1012,3 hPa 0,0 l/m 0 min 2 min 0 W/m 0,0 km/h (0 Bft) 95,74 %
27.08.2015 23:52 13,3 C 12,8 C 12,2 C 97 % 15 lf 1012,2 hPa 0,0 l/m 0 min 2 min 0 W/m 0,0 km/h (0 Bft) 97,87 %
27.08.2015 23:54 13,3 C 12,8 C 12,2 C 97 % 15 lf 1012,0 hPa 0,0 l/m 0 min 2 min 0 W/m 0,0 km/h (0 Bft) 91,30 %
27.08.2015 23:56 13,3 C 12,8 C 12,2 C 97 % 15 lf 1012,1 hPa 0,0 l/m 0 min 2 min 0 W/m 0,0 km/h (0 Bft) 95,74 %
27.08.2015 23:58 13,3 C 12,8 C 12,2 C 97 % 15 lf 1012,2 hPa 0,2 l/m 0 min 2 min 0 W/m 0,0 km/h (0 Bft) 96,30 %
_ Min-Zeit 23:24 22:48 19:56 00:00 00:00 00:05 - - - - 00:18 10:40
Minimum _ 13,3 C 12,8 C 12,2 C 60 % 0 lf 1006,9 hPa - - - - 0,0 km/h (0 Bft) 70,21 %
_ Max-Zeit 00:00 00:00 00:26 22:40 03:44 23:50 04:26 00:00 02:02 10:28 10:02 01:20
Maximum _ 24,1 C 23,9 C 22,2 C 97 % 15 lf 1012,3 hPa 0,2 l/m 0 min 2 min 269 W/m 20,9 km/h
N (4 Bft)
100,00 %
Durchschnitt _ 17,5 C 16,9 C 15,5 C 87 % 9 lf 1009,8 hPa #15,2 l/m #0 min. #16:27 h 79 W/m 2,0 km/h (1 Bft) 96,32 %
© 2015 W. Hausmann